KC5DAQ-26 Weather Reports


time (UTC)temp
C
wind
direction
speed
KPH
gust
KPH
rain 1hr
cm
rain 24hr
cm
rain mn
cm
humidity
%
barometer
mb
20260831030918 28 305 0.0 4.8 0.00 0.00 0.00 79 1017.9
20260831030817 28 305 0.0 4.8 0.00 0.00 0.00 79 1017.8
20260831030717 29 305 0.0 4.8 0.00 0.00 0.00 79 1017.8
20260831030619 29 305 0.0 4.8 0.00 0.00 0.00 79 1017.8
20260831030516 29 305 0.0 4.8 0.00 0.00 0.00 79 1017.7
20260831030418 29 305 0.0 4.8 0.00 0.00 0.00 79 1017.8
20260831030318 29 305 0.0 4.8 0.00 0.00 0.00 79 1017.7
20260831030217 29 305 0.0 4.8 0.00 0.00 0.00 79 1017.6
20260831030118 29 305 1.6 4.8 0.00 0.00 0.00 79 1017.7
20260831030020 29 305 1.6 4.8 0.00 0.00 0.00 79 1017.7
20260831025918 29 244 0.0 4.8 0.00 0.00 0.00 78 1017.7
20260831025817 29 244 0.0 4.8 0.00 0.00 0.00 78 1017.6
20260831025717 29 244 0.0 4.8 0.00 0.00 0.00 78 1017.6
20260831025616 29 244 0.0 4.8 0.00 0.00 0.00 78 1017.6
20260831025517 29 113 0.0 4.8 0.00 0.00 0.00 78 1017.5
20260831025417 29 113 0.0 4.8 0.00 0.00 0.00 78 1017.5
20260831025317 29 113 1.6 4.8 0.00 0.00 0.00 78 1017.5
20260831025218 29 113 0.0 4.8 0.00 0.00 0.00 78 1017.5
20260831025117 29 113 0.0 4.8 0.00 0.00 0.00 78 1017.5
20260831025017 29 113 0.0 4.8 0.00 0.00 0.00 78 1017.5
20260831024917 29 113 1.6 4.8 0.00 0.00 0.00 78 1017.4
20260831024817 29 113 1.6 4.8 0.00 0.00 0.00 78 1017.5
20260831024716 29 111 0.0 4.8 0.00 0.00 0.00 78 1017.5
20260831024617 29 111 0.0 4.8 0.00 0.00 0.00 77 1017.4
20260831024518 29 111 1.6 4.8 0.00 0.00 0.00 77 1017.4
20260831024417 29 111 1.6 4.8 0.00 0.00 0.00 77 1017.3
20260831024317 29 224 0.0 3.2 0.00 0.00 0.00 77 1017.4
20260831024217 29 298 0.0 3.2 0.00 0.00 0.00 77 1017.3
20260831024118 29 298 0.0 3.2 0.00 0.00 0.00 77 1017.3
20260831024017 29 298 0.0 6.4 0.00 0.00 0.00 77 1017.4
20260831023916 29 298 1.6 6.4 0.00 0.00 0.00 76 1017.3
20260831023819 29 298 0.0 6.4 0.00 0.00 0.00 76 1017.4
20260831023716 29 298 1.6 6.4 0.00 0.00 0.00 76 1017.4
20260831023616 29 298 1.6 6.4 0.00 0.00 0.00 76 1017.5
20260831023519 29 298 1.6 6.4 0.00 0.00 0.00 76 1017.5
20260831023416 29 298 1.6 6.4 0.00 0.00 0.00 76 1017.4
20260831023316 29 298 1.6 6.4 0.00 0.00 0.00 76 1017.4
20260831023217 29 299 3.2 6.4 0.00 0.00 0.00 76 1017.4
20260831023117 29 275 1.6 6.4 0.00 0.00 0.00 76 1017.3
20260831023017 29 190 0.0 4.8 0.00 0.00 0.00 76 1017.3
20260831022917 30 190 0.0 4.8 0.00 0.00 0.00 76 1017.3
20260831022818 30 190 1.6 4.8 0.00 0.00 0.00 76 1017.4
20260831022716 30 190 1.6 4.8 0.00 0.00 0.00 76 1017.2
20260831022617 30 190 0.0 6.4 0.00 0.00 0.00 75 1017.2
20260831022518 30 190 1.6 6.4 0.00 0.00 0.00 75 1017.2
20260831022418 30 190 0.0 6.4 0.00 0.00 0.00 75 1017.2
20260831022316 30 141 0.0 6.4 0.00 0.00 0.00 75 1017.1
20260831022216 30 141 0.0 6.4 0.00 0.00 0.00 75 1017.1
20260831022117 30 141 0.0 6.4 0.00 0.00 0.00 75 1017.2
20260831022017 30 141 1.6 6.4 0.00 0.00 0.00 75 1017.1
20260831021917 30 141 0.0 6.4 0.00 0.00 0.00 75 1017.2
20260831021817 30 128 1.6 6.4 0.00 0.00 0.00 75 1017.2
20260831021718 30 128 3.2 6.4 0.00 0.00 0.00 75 1017.0
20260831021616 30 128 3.2 6.4 0.00 0.00 0.00 75 1017.0
20260831021516 30 148 3.2 6.4 0.00 0.00 0.00 75 1016.9
20260831021419 30 147 1.6 6.4 0.00 0.00 0.00 75 1016.9
20260831021317 30 63 1.6 6.4 0.00 0.00 0.00 75 1016.9
20260831021216 30 63 1.6 6.4 0.00 0.00 0.00 74 1017.0
20260831021115 30 66 1.6 6.4 0.00 0.00 0.00 75 1017.0
20260831021016 30 63 1.6 6.4 0.00 0.00 0.00 74 1016.9
20260831020915 30 148 1.6 6.4 0.00 0.00 0.00 74 1016.9
20260831020815 30 151 3.2 6.4 0.00 0.00 0.00 74 1016.8
20260831020718 30 111 3.2 6.4 0.00 0.00 0.00 74 1016.9
20260831020617 30 128 1.6 6.4 0.00 0.00 0.00 73 1016.8
20260831020516 30 123 1.6 6.4 0.00 0.00 0.00 73 1016.7
20260831020416 30 186 0.0 6.4 0.00 0.00 0.00 73 1016.7
20260831020316 30 186 1.6 6.4 0.00 0.00 0.00 73 1016.8
20260831020217 30 188 1.6 6.4 0.00 0.00 0.00 73 1016.8
20260831020115 30 121 0.0 6.4 0.00 0.00 0.00 72 1016.8
20260831020016 30 121 1.6 8.0 0.00 0.00 0.00 73 1016.8
20260831015915 30 121 1.6 8.0 0.00 0.00 0.00 73 1016.8
20260831015816 30 62 0.0 8.0 0.00 0.00 0.00 72 1016.8
20260831015716 30 62 1.6 8.0 0.00 0.00 0.00 72 1016.8
20260831015616 30 62 1.6 8.0 0.00 0.00 0.00 72 1016.8
20260831015516 30 62 1.6 8.0 0.00 0.00 0.00 72 1016.9
20260831015415 30 62 1.6 8.0 0.00 0.00 0.00 72 1016.8
20260831015316 30 62 1.6 8.0 0.00 0.00 0.00 72 1016.8
20260831015215 30 62 3.2 8.0 0.00 0.00 0.00 72 1016.8
20260831015115 30 137 3.2 8.0 0.00 0.00 0.00 72 1016.8
20260831015016 30 31 3.2 8.0 0.00 0.00 0.00 72 1016.8
20260831014912 30 219 1.6 8.0 0.00 0.00 0.00 72 1016.8
20260831014805 30 231 1.6 8.0 0.00 0.00 0.00 72 1016.7
20260831014703 30 254 1.6 8.0 0.00 0.00 0.00 71 1016.8
20260831014602 30 251 0.0 8.0 0.00 0.00 0.00 71 1016.8
20260831014504 30 251 0.0 8.0 0.00 0.00 0.00 71 1016.8
20260831014402 30 251 1.6 8.0 0.00 0.00 0.00 71 1016.7
20260831014304 30 251 1.6 8.0 0.00 0.00 0.00 71 1016.8
20260831014202 30 255 3.2 8.0 0.00 0.00 0.00 70 1016.7
20260831014103 30 255 1.6 8.0 0.00 0.00 0.00 70 1016.8
20260831014002 30 154 0.0 4.8 0.00 0.00 0.00 70 1016.8
20260831013902 30 137 1.6 4.8 0.00 0.00 0.00 69 1016.8
20260831013805 30 137 1.6 4.8 0.00 0.00 0.00 69 1016.8
20260831013702 30 137 1.6 3.2 0.00 0.00 0.00 69 1016.7
20260831013601 30 137 1.6 3.2 0.00 0.00 0.00 69 1016.7
20260831013503 30 135 1.6 3.2 0.00 0.00 0.00 69 1016.8
20260831013403 30 135 1.6 3.2 0.00 0.00 0.00 69 1016.7
20260831013302 30 138 1.6 3.2 0.00 0.00 0.00 69 1016.7
20260831013203 30 137 0.0 3.2 0.00 0.00 0.00 69 1016.6
20260831013104 30 107 0.0 3.2 0.00 0.00 0.00 69 1016.7
20260831013003 30 107 0.0 3.2 0.00 0.00 0.00 68 1016.8
20260831012903 30 104 0.0 1.6 0.00 0.00 0.00 68 1016.7
20260831012802 30 104 0.0 1.6 0.00 0.00 0.00 68 1016.7
20260831012703 30 104 0.0 1.6 0.00 0.00 0.00 68 1016.5
20260831012603 30 104 0.0 3.2 0.00 0.00 0.00 68 1016.6
20260831012504 30 104 0.0 4.8 0.00 0.00 0.00 68 1016.5
20260831012405 30 104 0.0 4.8 0.00 0.00 0.00 68 1016.5
20260831012305 30 104 0.0 4.8 0.00 0.00 0.00 68 1016.5
20260831012203 30 104 0.0 4.8 0.00 0.00 0.00 68 1016.5
20260831012103 30 104 0.0 4.8 0.00 0.00 0.00 68 1016.6
20260831012003 30 104 0.0 4.8 0.00 0.00 0.00 67 1016.5
20260831011902 30 104 0.0 4.8 0.00 0.00 0.00 67 1016.6
20260831011803 30 104 0.0 4.8 0.00 0.00 0.00 67 1016.7
20260831011703 30 104 1.6 4.8 0.00 0.00 0.00 67 1016.6
20260831011602 30 106 1.6 4.8 0.00 0.00 0.00 68 1016.6
20260831011503 30 226 0.0 4.8 0.00 0.00 0.00 67 1016.7
20260831011403 30 226 0.0 6.4 0.00 0.00 0.00 67 1016.6
20260831011303 30 226 0.0 6.4 0.00 0.00 0.00 68 1016.6
20260831011202 30 226 0.0 6.4 0.00 0.00 0.00 67 1016.6
20260831011103 30 226 0.0 6.4 0.00 0.00 0.00 67 1016.5
20260831011003 30 226 1.6 6.4 0.00 0.00 0.00 67 1016.6
20260831010902 31 226 1.6 6.4 0.00 0.00 0.00 67 1016.6
20260831010802 31 226 1.6 6.4 0.00 0.00 0.00 67 1016.5
20260831010703 31 189 0.0 6.4 0.00 0.00 0.00 67 1016.6
20260831010603 31 189 1.6 6.4 0.00 0.00 0.00 67 1016.6
20260831010504 31 189 1.6 6.4 0.00 0.00 0.00 67 1016.6
20260831010404 31 106 1.6 3.2 0.00 0.00 0.00 67 1016.6
20260831010303 31 106 1.6 3.2 0.00 0.00 0.00 66 1016.5
20260831010203 31 106 1.6 3.2 0.00 0.00 0.00 66 1016.6
20260831010004 31 217 1.6 3.2 0.00 0.00 0.00 65 1016.5
20260831005903 31 228 1.6 3.2 0.00 0.00 0.00 65 1016.6
20260831005803 31 228 1.6 3.2 0.00 0.00 0.00 65 1016.5
20260831005704 31 228 1.6 3.2 0.00 0.00 0.00 65 1016.6
20260831005603 31 228 1.6 8.0 0.00 0.00 0.00 65 1016.5
20260831005502 31 228 1.6 8.0 0.00 0.00 0.00 65 1016.5
20260831005402 31 228 1.6 8.0 0.00 0.00 0.00 65 1016.5
20260831005306 31 228 1.6 8.0 0.00 0.00 0.00 65 1016.5
20260831005202 31 240 1.6 8.0 0.00 0.00 0.00 64 1016.4
20260831005102 31 106 1.6 8.0 0.00 0.00 0.00 64 1016.3
20260831005003 31 106 1.6 8.0 0.00 0.00 0.00 65 1016.4
20260831004902 31 106 1.6 8.0 0.00 0.00 0.00 64 1016.4
20260831004803 31 106 3.2 8.0 0.00 0.00 0.00 63 1016.4
20260831004702 31 106 3.2 8.0 0.00 0.00 0.00 64 1016.4
20260831004604 31 189 1.6 3.2 0.00 0.00 0.00 63 1016.4
20260831004502 31 189 3.2 3.2 0.00 0.00 0.00 63 1016.4
20260831004403 31 189 1.6 3.2 0.00 0.00 0.00 63 1016.4
20260831004303 31 189 1.6 3.2 0.00 0.00 0.00 62 1016.5
20260831004202 31 179 0.0 3.2 0.00 0.00 0.00 63 1016.4
20260831004102 31 179 0.0 3.2 0.00 0.00 0.00 62 1016.5
20260831004003 31 179 0.0 3.2 0.00 0.00 0.00 62 1016.4
20260831003903 31 179 0.0 3.2 0.00 0.00 0.00 62 1016.5
20260831003803 31 179 1.6 3.2 0.00 0.00 0.00 62 1016.5
20260831003702 31 179 1.6 3.2 0.00 0.00 0.00 61 1016.5
20260831003603 31 179 1.6 4.8 0.00 0.00 0.00 61 1016.4
20260831003503 31 179 1.6 4.8 0.00 0.00 0.00 60 1016.5
20260831003403 31 179 1.6 4.8 0.00 0.00 0.00 60 1016.4
20260831003304 31 179 1.6 4.8 0.00 0.00 0.00 60 1016.4
20260831003204 31 180 1.6 4.8 0.00 0.00 0.00 59 1016.5
20260831003102 31 180 0.0 4.8 0.00 0.00 0.00 59 1016.5
20260831003002 31 183 1.6 4.8 0.00 0.00 0.00 59 1016.5
20260831002904 31 183 1.6 4.8 0.00 0.00 0.00 60 1016.4
20260831002802 32 183 1.6 4.8 0.00 0.00 0.00 60 1016.4
20260831002702 32 183 1.6 4.8 0.00 0.00 0.00 59 1016.4
20260831002604 32 104 1.6 4.8 0.00 0.00 0.00 60 1016.5
20260831002503 32 104 1.6 4.8 0.00 0.00 0.00 59 1016.4
20260831002402 32 117 1.6 4.8 0.00 0.00 0.00 59 1016.4
20260831002305 32 137 1.6 4.8 0.00 0.00 0.00 58 1016.5
20260831002203 32 137 1.6 8.0 0.00 0.00 0.00 59 1016.5
20260831002103 32 137 1.6 8.0 0.00 0.00 0.00 58 1016.5
20260831002003 32 124 0.0 8.0 0.00 0.00 0.00 57 1016.5
20260831001903 32 124 0.0 8.0 0.00 0.00 0.00 59 1016.4
20260831001803 32 124 1.6 8.0 0.00 0.00 0.00 59 1016.5
20260831001702 32 124 1.6 8.0 0.00 0.00 0.00 56 1016.5
20260831001603 32 358 1.6 8.0 0.00 0.00 0.00 57 1016.5
20260831001503 32 358 3.2 8.0 0.00 0.00 0.00 56 1016.4
20260831001402 32 353 3.2 8.0 0.00 0.00 0.00 57 1016.3
20260831001302 32 45 1.6 8.0 0.00 0.00 0.00 56 1016.3
20260831001203 32 166 0.0 3.2 0.00 0.00 0.00 56 1016.3
20260831001103 32 166 0.0 3.2 0.00 0.00 0.00 56 1016.3
20260831001002 32 166 0.0 3.2 0.00 0.00 0.00 56 1016.4
20260831000904 32 192 0.0 3.2 0.00 0.00 0.00 55 1016.4
20260831000803 32 93 0.0 3.2 0.00 0.00 0.00 57 1016.3
20260831000703 33 92 0.0 3.2 0.00 0.00 0.00 56 1016.3
20260831000603 32 92 0.0 3.2 0.00 0.00 0.00 55 1016.4
20260831000505 32 92 1.6 3.2 0.00 0.00 0.00 55 1016.4
20260831000403 32 80 1.6 3.2 0.00 0.00 0.00 56 1016.4
20260831000303 32 79 1.6 6.4 0.00 0.00 0.00 55 1016.4
20260831000204 32 79 0.0 6.4 0.00 0.00 0.00 55 1016.4
20260831000002 33 86 0.0 6.4 0.00 0.00 0.00 55 1016.4
20260830235903 33 86 1.6 6.4 0.00 0.00 0.00 55 1016.4
20260830235803 33 93 1.6 6.4 0.00 0.00 0.00 54 1016.4
20260830235702 33 111 0.0 6.4 0.00 0.00 0.00 56 1016.4
20260830235603 33 110 0.0 6.4 0.00 0.00 0.00 54 1016.3
20260830235504 33 120 1.6 6.4 0.00 0.00 0.00 55 1016.3
20260830235402 33 125 1.6 6.4 0.00 0.00 0.00 56 1016.4
20260830235305 33 113 1.6 4.8 0.00 0.00 0.00 54 1016.4
20260830235204 33 45 1.6 4.8 0.00 0.00 0.00 56 1016.4
20260830235104 33 148 1.6 4.8 0.00 0.00 0.00 53 1016.3
20260830235003 33 148 1.6 4.8 0.00 0.00 0.00 53 1016.4
20260830234903 33 148 1.6 4.8 0.00 0.00 0.00 53 1016.4
20260830234738 33 148 1.6 4.8 0.00 0.00 0.00 53 1016.3
20260830234637 33 58 1.6 4.8 0.00 0.00 0.00 53 1016.4
20260830234536 33 59 0.0 6.4 0.00 0.00 0.00 55 1016.3
20260830234434 33 59 1.6 6.4 0.00 0.00 0.00 53 1016.4
20260830234332 33 49 1.6 6.4 0.00 0.00 0.00 52 1016.4
20260830234230 33 37 1.6 6.4 0.00 0.00 0.00 54 1016.4
20260830234131 33 203 0.0 6.4 0.00 0.00 0.00 54 1016.4
20260830234032 33 202 1.6 6.4 0.00 0.00 0.00 54 1016.3
20260830233931 33 203 1.6 6.4 0.00 0.00 0.00 53 1016.3
20260830233831 33 104 1.6 6.4 0.00 0.00 0.00 53 1016.3
20260830233733 33 104 1.6 6.4 0.00 0.00 0.00 53 1016.2
20260830233631 33 228 1.6 6.4 0.00 0.00 0.00 52 1016.3
20260830233532 33 82 0.0 4.8 0.00 0.00 0.00 53 1016.2
20260830233431 33 102 0.0 6.4 0.00 0.00 0.00 53 1016.2
20260830233331 33 102 0.0 6.4 0.00 0.00 0.00 52 1016.2
20260830233233 33 102 0.0 6.4 0.00 0.00 0.00 52 1016.2
20260830233131 33 102 1.6 6.4 0.00 0.00 0.00 52 1016.3
20260830233032 33 71 1.6 6.4 0.00 0.00 0.00 53 1016.2
20260830232931 33 68 3.2 6.4 0.00 0.00 0.00 52 1016.4
20260830232831 33 51 3.2 6.4 0.00 0.00 0.00 52 1016.2
20260830232733 33 59 1.6 6.4 0.00 0.00 0.00 53 1016.2
20260830232633 33 62 1.6 6.4 0.00 0.00 0.00 53 1016.3
20260830232532 33 62 1.6 6.4 0.00 0.00 0.00 53 1016.4
20260830232431 33 354 0.0 6.4 0.00 0.00 0.00 52 1016.3
20260830232333 33 353 0.0 6.4 0.00 0.00 0.00 55 1016.2
20260830232231 33 353 0.0 6.4 0.00 0.00 0.00 54 1016.3
20260830232132 33 353 0.0 6.4 0.00 0.00 0.00 53 1016.3
20260830232032 33 334 0.0 6.4 0.00 0.00 0.00 53 1016.3
20260830231932 33 331 1.6 6.4 0.00 0.00 0.00 54 1016.2
20260830231831 33 331 1.6 6.4 0.00 0.00 0.00 54 1016.3
20260830231732 34 238 1.6 6.4 0.00 0.00 0.00 52 1016.4
20260830231633 34 130 1.6 6.4 0.00 0.00 0.00 53 1016.2
20260830231532 34 0 3.2 6.4 0.00 0.00 0.00 51 1016.1
20260830231432 34 20 3.2 6.4 0.00 0.00 0.00 52 1016.1
20260830231333 34 152 1.6 6.4 0.00 0.00 0.00 52 1016.1
20260830231233 34 152 1.6 6.4 0.00 0.00 0.00 52 1016.2
20260830231113 34 152 1.6 6.4 0.00 0.00 0.00 52 1016.2
20260830231003 34 90 1.6 6.4 0.00 0.00 0.00 52 1016.2
20260830230902 34 176 1.6 6.4 0.00 0.00 0.00 54 1016.3
20260830230803 34 199 1.6 6.4 0.00 0.00 0.00 56 1016.3
20260830230703 34 62 3.2 6.4 0.00 0.00 0.00 55 1016.4
20260830230601 34 96 1.6 6.4 0.00 0.00 0.00 57 1016.3
20260830230503 34 124 0.0 4.8 0.00 0.00 0.00 57 1016.3
20260830230403 34 124 0.0 4.8 0.00 0.00 0.00 57 1016.3
20260830230302 34 100 0.0 4.8 0.00 0.00 0.00 55 1016.3
20260830230203 34 100 0.0 4.8 0.00 0.00 0.00 56 1016.3
20260830230103 34 54 0.0 4.8 0.00 0.00 0.00 55 1016.2
20260830230004 34 54 1.6 4.8 0.00 0.00 0.00 55 1016.3
20260830225903 34 54 1.6 4.8 0.00 0.00 0.00 55 1016.3
20260830225801 34 128 1.6 4.8 0.00 0.00 0.00 56 1016.3
20260830225703 34 178 1.6 4.8 0.00 0.00 0.00 55 1016.3
20260830225603 34 178 1.6 4.8 0.00 0.00 0.00 56 1016.3
20260830225503 34 78 1.6 4.8 0.00 0.00 0.00 55 1016.3
20260830225404 34 62 1.6 4.8 0.00 0.00 0.00 55 1016.3
20260830225305 34 185 0.0 4.8 0.00 0.00 0.00 54 1016.3
20260830225202 34 245 0.0 4.8 0.00 0.00 0.00 54 1016.3
20260830225104 34 93 1.6 4.8 0.00 0.00 0.00 54 1016.3
20260830225005 34 87 1.6 4.8 0.00 0.00 0.00 54 1016.2
20260830224902 35 123 1.6 4.8 0.00 0.00 0.00 55 1016.3
20260830224802 35 97 0.0 6.4 0.00 0.00 0.00 55 1016.3
20260830224703 35 97 1.6 6.4 0.00 0.00 0.00 54 1016.3
20260830224603 35 97 1.6 6.4 0.00 0.00 0.00 55 1016.3
20260830224502 35 82 0.0 6.4 0.00 0.00 0.00 55 1016.3
20260830224402 35 71 1.6 6.4 0.00 0.00 0.00 56 1016.3
20260830224304 35 63 1.6 6.4 0.00 0.00 0.00 58 1016.3
20260830224202 35 63 1.6 6.4 0.00 0.00 0.00 56 1016.3
20260830224102 35 75 0.0 6.4 0.00 0.00 0.00 56 1016.3
20260830224005 35 75 1.6 6.4 0.00 0.00 0.00 56 1016.4
20260830223902 35 76 3.2 6.4 0.00 0.00 0.00 57 1016.3
20260830223801 35 111 3.2 6.4 0.00 0.00 0.00 55 1016.3
20260830223703 35 69 3.2 6.4 0.00 0.00 0.00 55 1016.3
20260830223602 35 131 1.6 6.4 0.00 0.00 0.00 56 1016.2
20260830223503 35 87 1.6 6.4 0.00 0.00 0.00 56 1016.2
20260830223403 35 94 1.6 6.4 0.00 0.00 0.00 55 1016.3
20260830223303 35 58 1.6 6.4 0.00 0.00 0.00 56 1016.2
20260830223202 35 114 1.6 4.8 0.00 0.00 0.00 57 1016.2
20260830223104 35 114 1.6 4.8 0.00 0.00 0.00 56 1016.3
20260830223003 35 52 0.0 3.2 0.00 0.00 0.00 56 1016.2
20260830222902 35 52 0.0 3.2 0.00 0.00 0.00 56 1016.2
20260830222802 35 52 0.0 4.8 0.00 0.00 0.00 57 1016.2
20260830222702 35 52 0.0 4.8 0.00 0.00 0.00 57 1016.2
20260830222603 35 52 0.0 4.8 0.00 0.00 0.00 55 1016.2
20260830222503 35 72 0.0 4.8 0.00 0.00 0.00 59 1016.2
20260830222402 35 94 0.0 4.8 0.00 0.00 0.00 55 1016.3
20260830222306 35 94 0.0 4.8 0.00 0.00 0.00 55 1016.2
20260830222204 34 94 1.6 4.8 0.00 0.00 0.00 55 1016.2
20260830222102 34 94 1.6 4.8 0.00 0.00 0.00 56 1016.2
20260830222003 34 121 3.2 4.8 0.00 0.00 0.00 57 1016.2
20260830221904 34 144 3.2 4.8 0.00 0.00 0.00 57 1016.2
20260830221804 33 149 3.2 4.8 0.00 0.00 0.00 61 1016.2
20260830221703 33 127 0.0 1.6 0.00 0.00 0.00 61 1016.2
20260830221603 33 127 0.0 1.6 0.00 0.00 0.00 61 1016.2
20260830221504 33 127 0.0 1.6 0.00 0.00 0.00 61 1016.3
20260830221403 33 127 0.0 1.6 0.00 0.00 0.00 61 1016.3
20260830221304 33 127 0.0 3.2 0.00 0.00 0.00 61 1016.3
20260830221203 33 127 0.0 3.2 0.00 0.00 0.00 62 1016.2
20260830221102 33 127 0.0 3.2 0.00 0.00 0.00 60 1016.3
20260830221004 33 127 0.0 3.2 0.00 0.00 0.00 59 1016.3
20260830220903 33 127 0.0 3.2 0.00 0.00 0.00 62 1016.3
20260830220802 33 125 0.0 3.2 0.00 0.00 0.00 60 1016.2
20260830220702 33 125 0.0 3.2 0.00 0.00 0.00 62 1016.3
20260830220603 33 125 0.0 4.8 0.00 0.00 0.00 62 1016.3
20260830220504 33 125 0.0 6.4 0.00 0.00 0.00 61 1016.4
20260830220403 34 127 0.0 6.4 0.00 0.00 0.00 61 1016.3
20260830220302 34 135 0.0 6.4 0.00 0.00 0.00 61 1016.3
20260830220204 34 135 0.0 6.4 0.00 0.00 0.00 59 1016.2
20260830220003 34 124 0.0 6.4 0.00 0.00 0.00 59 1016.3
20260830215904 34 124 0.0 6.4 0.00 0.00 0.00 58 1016.3
20260830215803 34 124 0.0 6.4 0.00 0.00 0.00 56 1016.2
20260830215702 34 128 1.6 6.4 0.00 0.00 0.00 56 1016.2
20260830215604 34 135 1.6 6.4 0.00 0.00 0.00 57 1016.3
20260830215503 34 135 0.0 6.4 0.00 0.00 0.00 58 1016.2
20260830215403 34 186 0.0 6.4 0.00 0.00 0.00 56 1016.3
20260830215305 34 188 1.6 6.4 0.00 0.00 0.00 61 1016.3
20260830215204 35 186 1.6 6.4 0.00 0.00 0.00 58 1016.3
20260830215103 35 69 0.0 8.0 0.00 0.00 0.00 55 1016.2
20260830215004 35 69 0.0 8.0 0.00 0.00 0.00 56 1016.2
20260830214903 35 69 1.6 8.0 0.00 0.00 0.00 55 1016.1
20260830214802 35 68 1.6 8.0 0.00 0.00 0.00 54 1016.2
20260830214703 35 116 1.6 8.0 0.00 0.00 0.00 54 1016.2
20260830214603 35 116 3.2 8.0 0.00 0.00 0.00 58 1016.2
20260830214503 34 103 3.2 8.0 0.00 0.00 0.00 55 1016.2
20260830214403 34 73 1.6 8.0 0.00 0.00 0.00 58 1016.2
20260830214302 34 107 1.6 8.0 0.00 0.00 0.00 58 1016.1
20260830214203 34 107 1.6 8.0 0.00 0.00 0.00 56 1016.3
20260830214104 34 114 1.6 6.4 0.00 0.00 0.00 58 1016.3
20260830214004 34 117 0.0 6.4 0.00 0.00 0.00 57 1016.3
20260830213902 34 128 0.0 6.4 0.00 0.00 0.00 58 1016.3
20260830213803 34 128 1.6 6.4 0.00 0.00 0.00 57 1016.3
20260830213703 34 128 0.0 6.4 0.00 0.00 0.00 57 1016.3
20260830213603 34 124 0.0 6.4 0.00 0.00 0.00 57 1016.3
20260830213504 35 124 0.0 6.4 0.00 0.00 0.00 55 1016.3
20260830213403 35 124 1.6 6.4 0.00 0.00 0.00 55 1016.4
20260830213302 35 125 1.6 8.0 0.00 0.00 0.00 55 1016.4
20260830213203 35 76 0.0 8.0 0.00 0.00 0.00 54 1016.4
20260830213103 35 44 1.6 11.3 0.00 0.00 0.00 54 1016.5
20260830213002 35 44 1.6 11.3 0.00 0.00 0.00 53 1016.5
20260830212902 35 38 1.6 11.3 0.00 0.00 0.00 52 1016.5
20260830212805 35 32 1.6 11.3 0.00 0.00 0.00 53 1016.5
20260830212701 36 44 1.6 11.3 0.00 0.00 0.00 54 1016.5
20260830212602 36 45 1.6 14.5 0.00 0.00 0.00 53 1016.4
20260830212503 36 80 3.2 14.5 0.00 0.00 0.00 53 1016.4
20260830212402 36 133 3.2 14.5 0.00 0.00 0.00 52 1016.4
20260830212305 36 63 4.8 14.5 0.00 0.00 0.00 52 1016.3
20260830212202 36 86 4.8 14.5 0.00 0.00 0.00 51 1016.4
20260830212103 36 71 3.2 14.5 0.00 0.00 0.00 53 1016.4
20260830212003 36 66 1.6 14.5 0.00 0.00 0.00 54 1016.5
20260830211902 36 66 4.8 14.5 0.00 0.00 0.00 53 1016.5
20260830211804 36 96 6.4 14.5 0.00 0.00 0.00 54 1016.4
20260830211702 36 63 4.8 14.5 0.00 0.00 0.00 53 1016.5
20260830211602 36 61 1.6 4.8 0.00 0.00 0.00 51 1016.6
20260830211502 36 137 0.0 4.8 0.00 0.00 0.00 50 1016.5
20260830211403 36 162 0.0 4.8 0.00 0.00 0.00 52 1016.6
20260830211302 35 162 0.0 4.8 0.00 0.00 0.00 54 1016.6
20260830211202 35 162 1.6 4.8 0.00 0.00 0.00 52 1016.6
20260830211104 35 162 1.6 4.8 0.00 0.00 0.00 54 1016.6
20260830211003 35 162 3.2 4.8 0.00 0.00 0.00 52 1016.6
20260830210903 35 162 3.2 4.8 0.00 0.00 0.00 54 1016.7
20260830210803 35 162 1.6 4.8 0.00 0.00 0.00 54 1016.7
20260830210704 35 144 1.6 4.8 0.00 0.00 0.00 53 1016.7
20260830210602 35 144 1.6 4.8 0.00 0.00 0.00 54 1016.7
20260830210501 35 142 1.6 3.2 0.00 0.00 0.00 50 1016.8
20260830210403 35 86 1.6 3.2 0.00 0.00 0.00 53 1016.8
20260830210302 35 86 1.6 6.4 0.00 0.00 0.00 53 1016.9
20260830210203 35 83 3.2 6.4 0.00 0.00 0.00 52 1016.8
20260830210104 35 118 0.0 6.4 0.00 0.00 0.00 56 1016.8
20260830210004 35 118 0.0 6.4 0.00 0.00 0.00 56 1016.8
20260830205904 35 118 0.0 6.4 0.00 0.00 0.00 56 1016.9
20260830205801 35 118 0.0 6.4 0.00 0.00 0.00 56 1016.9
20260830205704 35 118 0.0 6.4 0.00 0.00 0.00 54 1016.9
20260830205602 35 118 0.0 6.4 0.00 0.00 0.00 54 1016.9
20260830205502 35 118 1.6 6.4 0.00 0.00 0.00 52 1016.9
20260830205404 35 118 1.6 6.4 0.00 0.00 0.00 52 1016.9
20260830205305 35 41 0.0 3.2 0.00 0.00 0.00 54 1016.9
20260830205202 35 41 0.0 3.2 0.00 0.00 0.00 53 1016.9
20260830205105 35 41 0.0 3.2 0.00 0.00 0.00 54 1016.9
20260830205005 35 41 0.0 3.2 0.00 0.00 0.00 54 1016.9
20260830204902 35 41 0.0 3.2 0.00 0.00 0.00 54 1016.9
20260830204802 35 41 0.0 3.2 0.00 0.00 0.00 55 1016.9
20260830204704 35 41 1.6 6.4 0.00 0.00 0.00 53 1017.0
20260830204602 35 41 1.6 6.4 0.00 0.00 0.00 52 1017.0
20260830204503 35 41 0.0 6.4 0.00 0.00 0.00 54 1017.0
20260830204403 35 41 0.0 6.4 0.00 0.00 0.00 52 1017.0
20260830204302 36 41 0.0 6.4 0.00 0.00 0.00 51 1017.0
20260830204202 36 41 0.0 6.4 0.00 0.00 0.00 51 1017.0
20260830204103 36 41 1.6 8.0 0.00 0.00 0.00 50 1017.1
20260830204004 36 39 1.6 14.5 0.00 0.00 0.00 53 1017.1
20260830203902 36 34 1.6 14.5 0.00 0.00 0.00 54 1017.0
20260830203804 36 62 1.6 14.5 0.00 0.00 0.00 50 1017.1
20260830203704 36 72 1.6 14.5 0.00 0.00 0.00 50 1017.1
20260830203602 36 192 0.0 14.5 0.00 0.00 0.00 50 1017.1
20260830203502 36 204 1.6 14.5 0.00 0.00 0.00 50 1017.2
20260830203402 36 265 3.2 14.5 0.00 0.00 0.00 49 1017.2
20260830203303 36 257 4.8 14.5 0.00 0.00 0.00 50 1017.2
20260830203202 36 293 6.4 14.5 0.00 0.00 0.00 49 1017.2
20260830203102 36 306 4.8 14.5 0.00 0.00 0.00 51 1017.2
20260830203004 36 68 1.6 4.8 0.00 0.00 0.00 50 1017.2
20260830202903 36 86 0.0 4.8 0.00 0.00 0.00 53 1017.2
20260830202802 36 71 0.0 4.8 0.00 0.00 0.00 54 1017.2
20260830202705 36 71 1.6 8.0 0.00 0.00 0.00 52 1017.3
20260830202603 36 71 0.0 8.0 0.00 0.00 0.00 51 1017.2
20260830202502 36 71 0.0 8.0 0.00 0.00 0.00 52 1017.2
20260830202404 36 71 1.6 8.0 0.00 0.00 0.00 52 1017.3
20260830202305 36 71 1.6 8.0 0.00 0.00 0.00 51 1017.4
20260830202202 36 71 1.6 8.0 0.00 0.00 0.00 51 1017.4
20260830202102 36 71 1.6 8.0 0.00 0.00 0.00 51 1017.4
20260830202004 36 59 1.6 8.0 0.00 0.00 0.00 52 1017.4
20260830201902 36 58 1.6 8.0 0.00 0.00 0.00 51 1017.4
20260830201802 36 111 1.6 8.0 0.00 0.00 0.00 51 1017.4
20260830201702 36 169 1.6 9.7 0.00 0.00 0.00 51 1017.4
20260830201604 36 172 1.6 9.7 0.00 0.00 0.00 50 1017.4
20260830201502 36 175 0.0 9.7 0.00 0.00 0.00 53 1017.4
20260830201402 36 175 0.0 9.7 0.00 0.00 0.00 52 1017.3
20260830201304 35 175 1.6 9.7 0.00 0.00 0.00 51 1017.4
20260830201203 35 175 1.6 9.7 0.00 0.00 0.00 51 1017.5
20260830201102 35 113 1.6 9.7 0.00 0.00 0.00 51 1017.5
20260830201001 35 113 1.6 9.7 0.00 0.00 0.00 51 1017.4
20260830200904 35 61 3.2 9.7 0.00 0.00 0.00 55 1017.5
20260830200802 35 94 4.8 9.7 0.00 0.00 0.00 52 1017.5
20260830200702 35 58 3.2 9.7 0.00 0.00 0.00 52 1017.5
20260830200603 35 62 3.2 9.7 0.00 0.00 0.00 51 1017.6
20260830200502 35 61 4.8 9.7 0.00 0.00 0.00 51 1017.6
20260830200403 36 65 4.8 8.0 0.00 0.00 0.00 51 1017.5
20260830200303 36 63 4.8 8.0 0.00 0.00 0.00 51 1017.6
20260830200203 36 65 4.8 8.0 0.00 0.00 0.00 52 1017.6
20260830200002 36 80 3.2 6.4 0.00 0.00 0.00 51 1017.6
20260830195903 36 83 3.2 6.4 0.00 0.00 0.00 51 1017.6
20260830195804 36 204 3.2 6.4 0.00 0.00 0.00 51 1017.6
20260830195702 36 204 3.2 6.4 0.00 0.00 0.00 51 1017.7
20260830195604 36 149 1.6 6.4 0.00 0.00 0.00 57 1017.7
20260830195503 36 151 1.6 6.4 0.00 0.00 0.00 55 1017.7
20260830195401 36 151 3.2 6.4 0.00 0.00 0.00 53 1017.7
20260830195305 36 151 3.2 6.4 0.00 0.00 0.00 52 1017.6
20260830195203 36 54 3.2 6.4 0.00 0.00 0.00 51 1017.7
20260830195102 35 68 3.2 6.4 0.00 0.00 0.00 54 1017.7
20260830195002 35 68 3.2 8.0 0.00 0.00 0.00 54 1017.6
20260830194903 35 66 1.6 8.0 0.00 0.00 0.00 54 1017.6
20260830194803 35 66 0.0 9.7 0.00 0.00 0.00 54 1017.6
20260830194702 35 66 0.0 9.7 0.00 0.00 0.00 55 1017.7
20260830194604 35 66 1.6 9.7 0.00 0.00 0.00 54 1017.7
20260830194504 35 66 1.6 9.7 0.00 0.00 0.00 53 1017.7
20260830194402 35 66 3.2 9.7 0.00 0.00 0.00 53 1017.7
20260830194302 35 66 3.2 9.7 0.00 0.00 0.00 53 1017.8
20260830194203 35 68 3.2 9.7 0.00 0.00 0.00 52 1017.8
20260830194102 35 65 6.4 9.7 0.00 0.00 0.00 55 1017.9
20260830194002 35 48 6.4 9.7 0.00 0.00 0.00 52 1018.0
20260830193904 35 52 4.8 9.7 0.00 0.00 0.00 53 1018.0
20260830193802 35 0 3.2 6.4 0.00 0.00 0.00 53 1018.0
20260830193702 35 357 3.2 6.4 0.00 0.00 0.00 53 1018.0
20260830193603 35 216 3.2 6.4 0.00 0.00 0.00 54 1018.0
20260830193504 35 216 3.2 8.0 0.00 0.00 0.00 53 1018.1
20260830193403 35 268 1.6 8.0 0.00 0.00 0.00 53 1018.1
20260830193302 35 268 1.6 8.0 0.00 0.00 0.00 57 1018.1
20260830193203 35 268 3.2 8.0 0.00 0.00 0.00 55 1018.1
20260830193101 35 268 1.6 8.0 0.00 0.00 0.00 53 1018.1
20260830193003 35 266 1.6 8.0 0.00 0.00 0.00 55 1018.2
20260830192904 35 269 3.2 8.0 0.00 0.00 0.00 54 1018.2
20260830192803 35 269 4.8 14.5 0.00 0.00 0.00 54 1018.2
20260830192702 35 269 6.4 14.5 0.00 0.00 0.00 53 1018.1
20260830192603 35 268 6.4 14.5 0.00 0.00 0.00 54 1018.2
20260830192505 35 276 4.8 14.5 0.00 0.00 0.00 53 1018.2
20260830192401 35 350 3.2 14.5 0.00 0.00 0.00 54 1018.2
20260830192305 35 73 1.6 14.5 0.00 0.00 0.00 54 1018.2
20260830192203 35 73 3.2 14.5 0.00 0.00 0.00 54 1018.3
20260830192102 35 73 3.2 14.5 0.00 0.00 0.00 53 1018.4
20260830192002 35 75 4.8 14.5 0.00 0.00 0.00 53 1018.3
20260830191859 35 103 3.2 14.5 0.00 0.00 0.00 56 1018.4
20260830191758 35 44 3.2 9.7 0.00 0.00 0.00 54 1018.3
20260830191656 35 44 3.2 9.7 0.00 0.00 0.00 53 1018.3
20260830191554 35 266 3.2 9.7 0.00 0.00 0.00 55 1018.4
20260830191453 35 268 1.6 9.7 0.00 0.00 0.00 55 1018.5
20260830191352 35 268 0.0 9.7 0.00 0.00 0.00 55 1018.4
20260830191250 35 268 0.0 9.7 0.00 0.00 0.00 55 1018.4
20260830191148 35 268 1.6 9.7 0.00 0.00 0.00 55 1018.5
20260830191047 35 268 3.2 9.7 0.00 0.00 0.00 55 1018.5
20260830190947 35 268 4.8 9.7 0.00 0.00 0.00 56 1018.5
20260830190844 35 268 3.2 9.7 0.00 0.00 0.00 57 1018.5
20260830190742 35 254 1.6 6.4 0.00 0.00 0.00 56 1018.5
20260830190641 35 254 1.6 6.4 0.00 0.00 0.00 55 1018.6
20260830190540 35 254 1.6 6.4 0.00 0.00 0.00 55 1018.6
20260830190440 35 254 3.2 6.4 0.00 0.00 0.00 56 1018.6
20260830190337 35 254 4.8 6.4 0.00 0.00 0.00 55 1018.6
20260830190235 35 254 3.2 8.0 0.00 0.00 0.00 55 1018.7
20260830190134 35 252 1.6 8.0 0.00 0.00 0.00 55 1018.6
20260830190033 35 252 3.2 8.0 0.00 0.00 0.00 56 1018.7
20260830185931 35 252 1.6 8.0 0.00 0.00 0.00 55 1018.7
20260830185831 35 252 3.2 8.0 0.00 0.00 0.00 56 1018.7
20260830185733 35 275 3.2 8.0 0.00 0.00 0.00 56 1018.7
20260830185632 35 272 4.8 8.0 0.00 0.00 0.00 56 1018.7
20260830185531 35 274 4.8 8.0 0.00 0.00 0.00 56 1018.8
20260830185430 35 274 4.8 8.0 0.00 0.00 0.00 57 1018.8
20260830185330 35 275 4.8 8.0 0.00 0.00 0.00 57 1018.8
20260830185228 35 275 4.8 11.3 0.00 0.00 0.00 57 1018.8
20260830185123 35 275 4.8 11.3 0.00 0.00 0.00 57 1018.8
20260830185023 34 281 3.2 11.3 0.00 0.00 0.00 57 1018.9
20260830184921 34 281 3.2 11.3 0.00 0.00 0.00 56 1018.9
20260830184820 34 281 6.4 11.3 0.00 0.00 0.00 56 1018.9
20260830184718 35 281 4.8 11.3 0.00 0.00 0.00 56 1018.9
20260830184616 34 288 3.2 11.3 0.00 0.00 0.00 57 1018.9
20260830184515 34 286 4.8 11.3 0.00 0.00 0.00 57 1018.9
20260830184413 34 286 8.0 11.3 0.00 0.00 0.00 56 1018.9
20260830184311 34 289 8.0 11.3 0.00 0.00 0.00 57 1018.9
20260830184211 34 286 6.4 9.7 0.00 0.00 0.00 57 1018.9
20260830184109 34 289 6.4 9.7 0.00 0.00 0.00 57 1018.9
20260830184008 34 279 6.4 9.7 0.00 0.00 0.00 58 1018.9
20260830183907 34 276 3.2 9.7 0.00 0.00 0.00 58 1019.0
20260830183805 34 274 1.6 9.7 0.00 0.00 0.00 59 1019.0
20260830183705 34 274 3.2 9.7 0.00 0.00 0.00 59 1019.0
20260830183607 34 274 4.8 9.7 0.00 0.00 0.00 59 1019.1
20260830183505 34 275 6.4 9.7 0.00 0.00 0.00 58 1019.0
20260830183405 34 275 6.4 9.7 0.00 0.00 0.00 57 1019.0
20260830183305 34 278 6.4 9.7 0.00 0.00 0.00 59 1019.0
20260830183205 34 279 6.4 9.7 0.00 0.00 0.00 60 1019.0
20260830183106 34 238 3.2 8.0 0.00 0.00 0.00 59 1019.0
20260830183006 34 217 3.2 8.0 0.00 0.00 0.00 59 1019.1
20260830182906 34 216 4.8 8.0 0.00 0.00 0.00 58 1019.2
20260830182806 34 116 3.2 8.0 0.00 0.00 0.00 59 1019.1
20260830182705 34 45 3.2 6.4 0.00 0.00 0.00 59 1019.1
20260830182603 34 45 3.2 6.4 0.00 0.00 0.00 59 1019.2
20260830182503 34 39 3.2 4.8 0.00 0.00 0.00 60 1019.1
20260830182404 33 39 1.6 4.8 0.00 0.00 0.00 60 1019.3
20260830182306 33 39 1.6 4.8 0.00 0.00 0.00 61 1019.3
20260830182200 34 39 1.6 4.8 0.00 0.00 0.00 60 1019.3
20260830182100 34 39 3.2 4.8 0.00 0.00 0.00 60 1019.2
20260830181958 34 39 3.2 4.8 0.00 0.00 0.00 60 1019.3
20260830181857 34 39 1.6 4.8 0.00 0.00 0.00 62 1019.3
20260830181755 33 39 1.6 4.8 0.00 0.00 0.00 61 1019.3
20260830181653 33 39 1.6 4.8 0.00 0.00 0.00 60 1019.3
20260830181552 33 39 3.2 4.8 0.00 0.00 0.00 59 1019.4
20260830181449 33 39 3.2 4.8 0.00 0.00 0.00 60 1019.4
20260830181348 33 39 3.2 4.8 0.00 0.00 0.00 61 1019.4
20260830181248 33 39 1.6 4.8 0.00 0.00 0.00 60 1019.4
20260830181146 33 39 1.6 4.8 0.00 0.00 0.00 60 1019.5
20260830181044 33 39 1.6 6.4 0.00 0.00 0.00 59 1019.5
20260830180942 33 39 3.2 6.4 0.00 0.00 0.00 60 1019.5
20260830180841 33 39 3.2 6.4 0.00 0.00 0.00 60 1019.5
20260830180741 33 39 1.6 8.0 0.00 0.00 0.00 61 1019.5
20260830180639 33 39 1.6 8.0 0.00 0.00 0.00 59 1019.6
20260830180537 33 39 1.6 8.0 0.00 0.00 0.00 59 1019.5
20260830180436 33 39 1.6 8.0 0.00 0.00 0.00 61 1019.5
20260830180335 33 39 1.6 8.0 0.00 0.00 0.00 61 1019.5
20260830180231 33 39 3.2 8.0 0.00 0.00 0.00 62 1019.5
20260830180132 33 39 3.2 8.0 0.00 0.00 0.00 62 1019.6
20260830180031 33 39 3.2 8.0 0.00 0.00 0.00 61 1019.6
20260830175933 33 39 6.4 8.0 0.00 0.00 0.00 61 1019.6
20260830175834 33 39 6.4 8.0 0.00 0.00 0.00 59 1019.6
20260830175715 33 75 6.4 8.0 0.00 0.00 0.00 59 1019.6
20260830175604 33 89 6.4 8.0 0.00 0.00 0.00 59 1019.7
20260830175505 33 90 6.4 8.0 0.00 0.00 0.00 59 1019.7
20260830175406 33 114 3.2 6.4 0.00 0.00 0.00 59 1019.7
20260830175306 33 137 1.6 6.4 0.00 0.00 0.00 61 1019.7
20260830175204 33 137 1.6 8.0 0.00 0.00 0.00 61 1019.7
20260830175106 33 137 1.6 8.0 0.00 0.00 0.00 62 1019.8
20260830175004 33 140 1.6 8.0 0.00 0.00 0.00 60 1019.8
20260830174905 33 140 3.2 8.0 0.00 0.00 0.00 60 1019.8
20260830174804 33 140 3.2 8.0 0.00 0.00 0.00 62 1019.8
20260830174704 33 137 3.2 8.0 0.00 0.00 0.00 63 1019.8
20260830174605 33 123 1.6 8.0 0.00 0.00 0.00 64 1019.7
20260830174504 33 123 1.6 8.0 0.00 0.00 0.00 63 1019.8
20260830174405 33 123 3.2 8.0 0.00 0.00 0.00 63 1019.8
20260830174305 33 124 3.2 8.0 0.00 0.00 0.00 64 1019.8
20260830174204 33 303 3.2 4.8 0.00 0.00 0.00 62 1019.8
20260830174104 33 288 1.6 6.4 0.00 0.00 0.00 64 1019.8
20260830174004 33 286 1.6 6.4 0.00 0.00 0.00 63 1019.8
20260830173904 33 286 3.2 6.4 0.00 0.00 0.00 63 1019.9
20260830173805 33 286 1.6 6.4 0.00 0.00 0.00 62 1020.0
20260830173705 33 286 0.0 6.4 0.00 0.00 0.00 63 1020.0
20260830173604 32 286 0.0 6.4 0.00 0.00 0.00 64 1020.0
20260830173504 32 286 0.0 8.0 0.00 0.00 0.00 62 1020.0
20260830173405 33 286 1.6 8.0 0.00 0.00 0.00 61 1020.0
20260830173305 33 286 3.2 8.0 0.00 0.00 0.00 62 1020.0
20260830173204 33 286 3.2 8.0 0.00 0.00 0.00 61 1020.0
20260830173104 33 286 3.2 8.0 0.00 0.00 0.00 63 1020.1
20260830173005 33 286 1.6 8.0 0.00 0.00 0.00 63 1020.2
20260830172904 33 286 1.6 8.0 0.00 0.00 0.00 63 1020.1
20260830172804 33 286 3.2 8.0 0.00 0.00 0.00 62 1020.1
20260830172705 33 288 4.8 8.0 0.00 0.00 0.00 62 1020.1
20260830172605 33 286 4.8 8.0 0.00 0.00 0.00 63 1020.1
20260830172505 33 288 6.4 8.0 0.00 0.00 0.00 62 1020.1
20260830172404 33 290 4.8 8.0 0.00 0.00 0.00 65 1020.1
20260830172306 33 228 1.6 8.0 0.00 0.00 0.00 63 1020.2
20260830172204 33 228 1.6 8.0 0.00 0.00 0.00 63 1020.2
20260830172104 33 250 1.6 8.0 0.00 0.00 0.00 65 1020.2
20260830172006 33 250 3.2 8.0 0.00 0.00 0.00 63 1020.2
20260830171904 33 250 3.2 8.0 0.00 0.00 0.00 65 1020.3
20260830171804 33 250 3.2 8.0 0.00 0.00 0.00 63 1020.3
20260830171704 33 250 6.4 8.0 0.00 0.00 0.00 63 1020.3
20260830171606 33 255 4.8 8.0 0.00 0.00 0.00 63 1020.3
20260830171504 33 247 3.2 4.8 0.00 0.00 0.00 64 1020.4
20260830171402 33 245 1.6 4.8 0.00 0.00 0.00 65 1020.3
20260830171304 33 245 1.6 3.2 0.00 0.00 0.00 65 1020.3
20260830171204 33 245 1.6 3.2 0.00 0.00 0.00 64 1020.3
20260830171104 33 245 1.6 4.8 0.00 0.00 0.00 65 1020.3
20260830171003 32 245 0.0 4.8 0.00 0.00 0.00 63 1020.2
20260830170905 32 245 1.6 4.8 0.00 0.00 0.00 63 1020.2
20260830170803 32 245 1.6 4.8 0.00 0.00 0.00 64 1020.2
20260830170703 32 245 1.6 4.8 0.00 0.00 0.00 64 1020.2
20260830170605 32 245 1.6 4.8 0.00 0.00 0.00 62 1020.3
20260830170504 32 245 3.2 6.4 0.00 0.00 0.00 63 1020.2
20260830170403 33 257 3.2 8.0 0.00 0.00 0.00 68 1020.2
20260830170303 32 258 3.2 8.0 0.00 0.00 0.00 67 1020.2
20260830170205 32 258 3.2 8.0 0.00 0.00 0.00 67 1020.1
20260830170104 32 258 1.6 8.0 0.00 0.00 0.00 66 1020.2
20260830170004 32 258 1.6 8.0 0.00 0.00 0.00 67 1020.3
20260830165904 32 258 1.6 8.0 0.00 0.00 0.00 67 1020.2
20260830165804 32 258 1.6 8.0 0.00 0.00 0.00 67 1020.2
20260830165704 32 258 3.2 8.0 0.00 0.00 0.00 67 1020.2
20260830165603 32 258 4.8 8.0 0.00 0.00 0.00 66 1020.2
20260830165505 32 258 4.8 8.0 0.00 0.00 0.00 67 1020.2
20260830165403 32 257 3.2 8.0 0.00 0.00 0.00 67 1020.3
20260830165305 32 258 1.6 8.0 0.00 0.00 0.00 68 1020.3
20260830165204 32 257 1.6 8.0 0.00 0.00 0.00 68 1020.3
20260830165105 32 258 3.2 8.0 0.00 0.00 0.00 68 1020.3
20260830165003 32 257 3.2 8.0 0.00 0.00 0.00 68 1020.4
20260830164904 32 257 6.4 8.0 0.00 0.00 0.00 68 1020.4
20260830164803 32 257 6.4 8.0 0.00 0.00 0.00 68 1020.3
20260830164703 32 257 6.4 8.0 0.00 0.00 0.00 68 1020.4
20260830164603 32 233 4.8 6.4 0.00 0.00 0.00 68 1020.4
20260830164504 32 233 6.4 6.4 0.00 0.00 0.00 68 1020.3
20260830164403 32 227 4.8 6.4 0.00 0.00 0.00 68 1020.4
20260830164302 32 204 3.2 6.4 0.00 0.00 0.00 67 1020.4
20260830164202 32 193 3.2 4.8 0.00 0.00 0.00 66 1020.3
20260830164104 32 193 3.2 4.8 0.00 0.00 0.00 67 1020.3
20260830164003 32 193 1.6 4.8 0.00 0.00 0.00 68 1020.3
20260830163900 32 193 0.0 4.8 0.00 0.00 0.00 68 1020.2
20260830163758 32 193 0.0 4.8 0.00 0.00 0.00 67 1020.2
20260830163658 32 193 1.6 4.8 0.00 0.00 0.00 67 1020.2
20260830163555 32 193 0.0 4.8 0.00 0.00 0.00 68 1020.2
20260830163455 32 193 0.0 4.8 0.00 0.00 0.00 69 1020.2
20260830163356 32 193 1.6 4.8 0.00 0.00 0.00 69 1020.2
20260830163251 32 193 3.2 4.8 0.00 0.00 0.00 68 1020.4
20260830163149 32 195 3.2 6.4 0.00 0.00 0.00 67 1020.3
20260830163048 32 278 1.6 6.4 0.00 0.00 0.00 67 1020.3
20260830162946 32 281 1.6 6.4 0.00 0.00 0.00 69 1020.4
20260830162846 32 281 0.0 6.4 0.00 0.00 0.00 68 1020.3
20260830162745 32 281 0.0 6.4 0.00 0.00 0.00 67 1020.4
20260830162642 32 281 0.0 6.4 0.00 0.00 0.00 67 1020.4
20260830162537 32 281 1.6 6.4 0.00 0.00 0.00 67 1020.4
20260830162435 32 281 1.6 6.4 0.00 0.00 0.00 69 1020.3
20260830162334 32 278 3.2 6.4 0.00 0.00 0.00 68 1020.4
20260830162232 32 279 3.2 6.4 0.00 0.00 0.00 68 1020.4
20260830162130 32 279 3.2 6.4 0.00 0.00 0.00 68 1020.3
20260830162032 32 279 3.2 6.4 0.00 0.00 0.00 68 1020.3
20260830161932 32 288 1.6 6.4 0.00 0.00 0.00 69 1020.3
20260830161830 31 288 0.0 6.4 0.00 0.00 0.00 69 1020.4
20260830161731 31 285 1.6 6.4 0.00 0.00 0.00 69 1020.3
20260830161628 31 285 3.2 6.4 0.00 0.00 0.00 69 1020.4
20260830161527 31 285 4.8 6.4 0.00 0.00 0.00 70 1020.4
20260830161427 31 286 3.2 4.8 0.00 0.00 0.00 71 1020.4
20260830161324 31 286 1.6 4.8 0.00 0.00 0.00 73 1020.4
20260830161223 31 286 1.6 6.4 0.00 0.00 0.00 73 1020.4
20260830161121 31 286 1.6 6.4 0.00 0.00 0.00 73 1020.4
20260830161020 31 286 1.6 6.4 0.00 0.00 0.00 71 1020.4
20260830160918 31 286 1.6 6.4 0.00 0.00 0.00 72 1020.4
20260830160817 31 286 1.6 6.4 0.00 0.00 0.00 72 1020.4
20260830160716 31 286 3.2 8.0 0.00 0.00 0.00 71 1020.4
20260830160614 31 285 3.2 8.0 0.00 0.00 0.00 72 1020.4
20260830160514 31 285 1.6 8.0 0.00 0.00 0.00 71 1020.4
20260830160412 31 285 3.2 8.0 0.00 0.00 0.00 71 1020.4
20260830160310 31 285 4.8 8.0 0.00 0.00 0.00 70 1020.5
20260830160208 31 285 3.2 8.0 0.00 0.00 0.00 71 1020.4
20260830160107 31 285 1.6 8.0 0.00 0.00 0.00 72 1020.5
20260830160004 31 285 3.2 8.0 0.00 0.00 0.00 71 1020.5
20260830155904 31 285 4.8 8.0 0.00 0.00 0.00 71 1020.4
20260830155803 31 285 4.8 8.0 0.00 0.00 0.00 72 1020.4
20260830155703 31 281 3.2 6.4 0.00 0.00 0.00 72 1020.5
20260830155603 31 282 1.6 6.4 0.00 0.00 0.00 72 1020.4
20260830155502 31 281 1.6 4.8 0.00 0.00 0.00 72 1020.5
20260830155403 31 281 1.6 4.8 0.00 0.00 0.00 72 1020.5
20260830155306 31 281 3.2 4.8 0.00 0.00 0.00 72 1020.4
20260830155202 31 281 3.2 4.8 0.00 0.00 0.00 72 1020.5
20260830155103 31 282 1.6 4.8 0.00 0.00 0.00 72 1020.4
20260830155003 31 282 0.0 4.8 0.00 0.00 0.00 72 1020.3
20260830154903 31 282 1.6 4.8 0.00 0.00 0.00 73 1020.4
20260830154802 31 282 3.2 4.8 0.00 0.00 0.00 73 1020.4
20260830154703 31 283 3.2 6.4 0.00 0.00 0.00 73 1020.4
20260830154604 31 283 1.6 6.4 0.00 0.00 0.00 75 1020.4
20260830154502 31 288 1.6 6.4 0.00 0.00 0.00 74 1020.5
20260830154402 31 288 0.0 6.4 0.00 0.00 0.00 73 1020.3
20260830154302 31 288 0.0 6.4 0.00 0.00 0.00 73 1020.4
20260830154203 31 288 1.6 6.4 0.00 0.00 0.00 73 1020.4
20260830154102 31 288 1.6 6.4 0.00 0.00 0.00 72 1020.5
20260830154004 31 288 3.2 6.4 0.00 0.00 0.00 71 1020.4
20260830153903 31 288 3.2 6.4 0.00 0.00 0.00 72 1020.5
20260830153803 31 288 4.8 6.4 0.00 0.00 0.00 73 1020.5
20260830153703 31 288 4.8 6.4 0.00 0.00 0.00 72 1020.5
20260830153604 31 285 3.2 4.8 0.00 0.00 0.00 74 1020.5
20260830153504 31 285 1.6 4.8 0.00 0.00 0.00 75 1020.5
20260830153403 31 285 1.6 4.8 0.00 0.00 0.00 73 1020.5
20260830153303 31 286 1.6 4.8 0.00 0.00 0.00 74 1020.6
20260830153203 31 286 1.6 4.8 0.00 0.00 0.00 75 1020.5
20260830153102 31 288 1.6 4.8 0.00 0.00 0.00 75 1020.6
20260830153003 30 288 1.6 4.8 0.00 0.00 0.00 74 1020.5
20260830152903 30 283 0.0 3.2 0.00 0.00 0.00 74 1020.5
20260830152802 30 283 1.6 3.2 0.00 0.00 0.00 74 1020.5
20260830152702 30 283 1.6 4.8 0.00 0.00 0.00 75 1020.6
20260830152603 30 282 0.0 6.4 0.00 0.00 0.00 75 1020.6
20260830152503 30 282 0.0 6.4 0.00 0.00 0.00 75 1020.5
20260830152403 30 282 1.6 6.4 0.00 0.00 0.00 75 1020.6
20260830152305 30 282 1.6 6.4 0.00 0.00 0.00 76 1020.6
20260830152202 30 282 1.6 9.7 0.00 0.00 0.00 76 1020.6
20260830152102 30 282 1.6 9.7 0.00 0.00 0.00 77 1020.6
20260830152002 30 282 1.6 9.7 0.00 0.00 0.00 75 1020.6
20260830151903 30 282 3.2 9.7 0.00 0.00 0.00 76 1020.6
20260830151804 30 282 3.2 9.7 0.00 0.00 0.00 76 1020.5
20260830151702 30 283 1.6 9.7 0.00 0.00 0.00 76 1020.5
20260830151603 30 286 1.6 9.7 0.00 0.00 0.00 76 1020.5
20260830151503 30 286 3.2 9.7 0.00 0.00 0.00 78 1020.5
20260830151402 30 286 6.4 9.7 0.00 0.00 0.00 76 1020.5
20260830151301 30 282 4.8 9.7 0.00 0.00 0.00 77 1020.5
20260830151202 30 265 3.2 6.4 0.00 0.00 0.00 78 1020.5
20260830151102 30 173 1.6 6.4 0.00 0.00 0.00 77 1020.5
20260830151002 30 172 3.2 6.4 0.00 0.00 0.00 77 1020.5
20260830150903 30 173 3.2 6.4 0.00 0.00 0.00 78 1020.4
20260830150802 30 265 1.6 4.8 0.00 0.00 0.00 78 1020.4
20260830150703 30 255 1.6 4.8 0.00 0.00 0.00 78 1020.4
20260830150603 30 255 1.6 4.8 0.00 0.00 0.00 79 1020.4
20260830150505 30 255 0.0 4.8 0.00 0.00 0.00 80 1020.4
20260830150403 30 255 0.0 4.8 0.00 0.00 0.00 78 1020.4
20260830150302 30 255 0.0 4.8 0.00 0.00 0.00 78 1020.3
20260830150203 30 255 1.6 4.8 0.00 0.00 0.00 78 1020.4
20260830150104 30 255 1.6 4.8 0.00 0.00 0.00 79 1020.4
20260830150001 30 255 3.2 4.8 0.00 0.00 0.00 79 1020.3
20260830145901 30 255 1.6 4.8 0.00 0.00 0.00 79 1020.4
20260830145801 30 224 0.0 6.4 0.00 0.00 0.00 79 1020.4
20260830145701 30 224 1.6 6.4 0.00 0.00 0.00 79 1020.4
20260830145600 30 224 3.2 6.4 0.00 0.00 0.00 79 1020.4
20260830145500 30 224 3.2 6.4 0.00 0.00 0.00 81 1020.4
20260830145403 30 224 1.6 6.4 0.00 0.00 0.00 81 1020.4
20260830145300 29 224 1.6 6.4 0.00 0.00 0.00 81 1020.3
20260830145201 29 224 3.2 6.4 0.00 0.00 0.00 80 1020.5
20260830145101 29 224 3.2 6.4 0.00 0.00 0.00 80 1020.4
20260830145002 29 224 4.8 6.4 0.00 0.00 0.00 80 1020.4
20260830144901 29 224 4.8 6.4 0.00 0.00 0.00 82 1020.4
20260830144800 29 220 3.2 6.4 0.00 0.00 0.00 82 1020.4
20260830144702 29 216 1.6 4.8 0.00 0.00 0.00 82 1020.4
20260830144601 29 216 1.6 4.8 0.00 0.00 0.00 83 1020.5
20260830144500 29 216 1.6 4.8 0.00 0.00 0.00 83 1020.5
20260830144401 29 216 1.6 4.8 0.00 0.00 0.00 83 1020.4
20260830144300 29 216 1.6 4.8 0.00 0.00 0.00 83 1020.4
20260830144201 29 216 1.6 4.8 0.00 0.00 0.00 83 1020.4
20260830144100 29 216 0.0 4.8 0.00 0.00 0.00 83 1020.5
20260830144003 29 216 1.6 4.8 0.00 0.00 0.00 83 1020.4
20260830143901 29 216 3.2 4.8 0.00 0.00 0.00 83 1020.5
20260830143801 29 216 3.2 4.8 0.00 0.00 0.00 83 1020.5
20260830143701 29 216 3.2 4.8 0.00 0.00 0.00 83 1020.5
20260830143601 29 216 1.6 4.8 0.00 0.00 0.00 83 1020.5
20260830143500 29 216 0.0 4.8 0.00 0.00 0.00 84 1020.5
20260830143400 29 216 0.0 4.8 0.00 0.00 0.00 83 1020.5
20260830143300 29 216 1.6 4.8 0.00 0.00 0.00 83 1020.5
20260830143200 29 216 3.2 4.8 0.00 0.00 0.00 83 1020.5
20260830143101 29 216 1.6 4.8 0.00 0.00 0.00 83 1020.5
20260830143001 29 216 0.0 4.8 0.00 0.00 0.00 83 1020.6
20260830142902 29 216 1.6 4.8 0.00 0.00 0.00 83 1020.6
20260830142800 29 216 3.2 4.8 0.00 0.00 0.00 83 1020.6
20260830142700 29 216 3.2 4.8 0.00 0.00 0.00 83 1020.5
20260830142603 29 216 1.6 4.8 0.00 0.00 0.00 84 1020.6
20260830142501 29 216 1.6 4.8 0.00 0.00 0.00 84 1020.5
20260830142400 29 216 3.2 4.8 0.00 0.00 0.00 84 1020.5
20260830142301 29 216 1.6 4.8 0.00 0.00 0.00 84 1020.5
20260830142201 28 216 0.0 4.8 0.00 0.00 0.00 84 1020.5
20260830142100 28 216 0.0 4.8 0.00 0.00 0.00 85 1020.5
20260830142000 28 216 0.0 4.8 0.00 0.00 0.00 85 1020.5
20260830141900 28 216 1.6 4.8 0.00 0.00 0.00 85 1020.5
20260830141800 28 216 3.2 4.8 0.00 0.00 0.00 85 1020.5
20260830141700 28 216 3.2 4.8 0.00 0.00 0.00 85 1020.6
20260830141600 28 216 3.2 4.8 0.00 0.00 0.00 85 1020.6
20260830141501 28 216 1.6 4.8 0.00 0.00 0.00 86 1020.6
20260830141359 28 216 1.6 4.8 0.00 0.00 0.00 86 1020.6
20260830141300 28 216 0.0 4.8 0.00 0.00 0.00 86 1020.6
20260830141200 28 216 0.0 4.8 0.00 0.00 0.00 87 1020.6
20260830141100 28 216 0.0 4.8 0.00 0.00 0.00 86 1020.7
20260830141000 28 216 1.6 4.8 0.00 0.00 0.00 86 1020.6
20260830140902 28 216 1.6 4.8 0.00 0.00 0.00 87 1020.6
20260830140800 28 216 1.6 3.2 0.00 0.00 0.00 87 1020.6
20260830140700 28 216 0.0 3.2 0.00 0.00 0.00 88 1020.6
20260830140559 28 216 1.6 3.2 0.00 0.00 0.00 87 1020.6
20260830140502 28 216 1.6 3.2 0.00 0.00 0.00 88 1020.6
20260830140400 28 216 1.6 3.2 0.00 0.00 0.00 88 1020.5
20260830140259 28 216 1.6 4.8 0.00 0.00 0.00 88 1020.5
20260830140200 28 216 1.6 4.8 0.00 0.00 0.00 88 1020.4
20260830140059 28 216 0.0 4.8 0.00 0.00 0.00 88 1020.5
20260830140002 28 216 0.0 4.8 0.00 0.00 0.00 88 1020.5
20260830135900 28 216 0.0 4.8 0.00 0.00 0.00 89 1020.4
20260830135802 28 216 0.0 4.8 0.00 0.00 0.00 88 1020.5
20260830135659 28 216 0.0 4.8 0.00 0.00 0.00 89 1020.4
20260830135559 28 216 1.6 4.8 0.00 0.00 0.00 89 1020.4
20260830135501 28 216 1.6 4.8 0.00 0.00 0.00 88 1020.4
20260830135359 28 216 3.2 4.8 0.00 0.00 0.00 88 1020.3
20260830135259 28 216 3.2 3.2 0.00 0.00 0.00 88 1020.3
20260830135201 28 216 1.6 3.2 0.00 0.00 0.00 89 1020.3
20260830135059 28 216 1.6 3.2 0.00 0.00 0.00 88 1020.3
20260830134959 28 216 1.6 3.2 0.00 0.00 0.00 89 1020.2
20260830134900 27 216 0.0 1.6 0.00 0.00 0.00 89 1020.2
20260830134801 27 216 0.0 1.6 0.00 0.00 0.00 89 1020.1
20260830134659 27 216 0.0 1.6 0.00 0.00 0.00 89 1020.1
20260830134559 27 216 0.0 3.2 0.00 0.00 0.00 89 1020.2
20260830134501 27 216 0.0 3.2 0.00 0.00 0.00 89 1020.1
20260830134400 27 216 0.0 3.2 0.00 0.00 0.00 89 1020.1
20260830134259 27 216 0.0 4.8 0.00 0.00 0.00 89 1020.1
20260830134159 27 216 0.0 4.8 0.00 0.00 0.00 89 1020.1
20260830134100 27 216 0.0 4.8 0.00 0.00 0.00 89 1020.0
20260830133959 27 216 0.0 4.8 0.00 0.00 0.00 89 1020.0
20260830133859 27 216 0.0 4.8 0.00 0.00 0.00 89 1020.1
20260830133801 27 216 1.6 4.8 0.00 0.00 0.00 89 1020.1
20260830133700 27 216 1.6 4.8 0.00 0.00 0.00 89 1020.0
20260830133559 27 216 3.2 4.8 0.00 0.00 0.00 89 1020.1
20260830133459 27 216 3.2 4.8 0.00 0.00 0.00 90 1020.1
20260830133401 27 216 3.2 4.8 0.00 0.00 0.00 90 1020.1
20260830133259 27 216 1.6 3.2 0.00 0.00 0.00 90 1020.1
20260830133159 27 216 1.6 3.2 0.00 0.00 0.00 90 1020.1
20260830133059 27 216 1.6 1.6 0.00 0.00 0.00 90 1020.1
20260830132959 27 216 0.0 1.6 0.00 0.00 0.00 90 1020.1
20260830132900 27 216 0.0 0.0 0.00 0.00 0.00 90 1020.0
20260830132759 27 216 0.0 0.0 0.00 0.00 0.00 91 1020.0
20260830132700 27 216 0.0 0.0 0.00 0.00 0.00 91 1020.1
20260830132559 27 216 0.0 0.0 0.00 0.00 0.00 91 1020.1
20260830132458 27 216 0.0 0.0 0.00 0.00 0.00 91 1020.0
20260830132400 27 216 0.0 0.0 0.00 0.00 0.00 92 1020.0
20260830132258 27 216 0.0 0.0 0.00 0.00 0.00 92 1020.0
20260830132159 27 216 0.0 0.0 0.00 0.00 0.00 92 1020.0
20260830132058 27 216 0.0 0.0 0.00 0.00 0.00 92 1020.0
20260830132001 27 216 0.0 0.0 0.00 0.00 0.00 92 1020.0
20260830131859 26 216 0.0 0.0 0.00 0.00 0.00 92 1020.0
20260830131759 26 216 0.0 0.0 0.00 0.00 0.00 93 1019.9
20260830131700 26 216 0.0 0.0 0.00 0.00 0.00 93 1019.9
20260830131558 26 216 0.0 0.0 0.00 0.00 0.00 93 1020.0
20260830131459 26 216 0.0 0.0 0.00 0.00 0.00 93 1019.9
20260830131359 26 216 0.0 0.0 0.00 0.00 0.00 94 1020.0
20260830131301 26 216 0.0 0.0 0.00 0.00 0.00 94 1019.9
20260830131158 26 216 0.0 0.0 0.00 0.00 0.00 94 1019.9
20260830131059 26 216 0.0 0.0 0.00 0.00 0.00 94 1019.9
20260830130959 26 216 0.0 0.0 0.00 0.00 0.00 95 1019.9
20260830130859 26 216 0.0 0.0 0.00 0.00 0.00 95 1019.9
20260830130758 26 216 0.0 0.0 0.00 0.00 0.00 95 1020.0
20260830130658 26 216 0.0 0.0 0.00 0.00 0.00 95 1019.9
20260830130559 26 216 0.0 0.0 0.00 0.00 0.00 95 1019.9
20260830130459 26 216 0.0 0.0 0.00 0.00 0.00 95 1019.9
20260830130359 26 216 0.0 0.0 0.00 0.00 0.00 95 1019.9
20260830130259 26 216 0.0 0.0 0.00 0.00 0.00 95 1019.8
20260830130158 26 216 0.0 0.0 0.00 0.00 0.00 96 1019.8
20260830130059 26 216 0.0 0.0 0.00 0.00 0.00 96 1019.9
20260830125959 26 216 0.0 0.0 0.00 0.00 0.00 96 1019.8
20260830125858 25 216 0.0 0.0 0.00 0.00 0.00 96 1019.9
20260830125758 25 216 0.0 0.0 0.00 0.00 0.00 96 1019.8
20260830125658 25 216 0.0 0.0 0.00 0.00 0.00 96 1019.8
20260830125601 25 216 0.0 0.0 0.00 0.00 0.00 96 1019.7
20260830125458 25 216 0.0 0.0 0.00 0.00 0.00 96 1019.7
20260830125359 25 216 0.0 0.0 0.00 0.00 0.00 96 1019.7
20260830125258 25 216 0.0 0.0 0.00 0.00 0.00 96 1019.7
20260830125159 25 216 0.0 0.0 0.00 0.00 0.00 96 1019.7
20260830125057 25 216 0.0 0.0 0.00 0.00 0.00 96 1019.7
20260830124958 25 216 0.0 0.0 0.00 0.00 0.00 96 1019.7
20260830124856 25 216 0.0 0.0 0.00 0.00 0.00 96 1019.7
20260830124755 25 216 0.0 0.0 0.00 0.00 0.00 96 1019.8
20260830124652 25 216 0.0 0.0 0.00 0.00 0.00 96 1019.8
20260830124549 25 216 0.0 0.0 0.00 0.00 0.00 96 1019.7
20260830124448 25 216 0.0 0.0 0.00 0.00 0.00 96 1019.8
20260830124346 25 216 0.0 0.0 0.00 0.00 0.00 96 1019.8
20260830124246 25 216 0.0 0.0 0.00 0.00 0.00 96 1019.8
20260830124143 25 216 0.0 0.0 0.00 0.00 0.00 96 1019.8
20260830124041 25 216 0.0 0.0 0.00 0.00 0.00 96 1019.7
20260830123940 25 216 0.0 0.0 0.00 0.00 0.00 96 1019.8
20260830123838 25 216 0.0 0.0 0.00 0.00 0.00 96 1019.8
20260830123734 25 216 0.0 0.0 0.00 0.00 0.00 96 1019.7
20260830123632 25 216 0.0 0.0 0.00 0.00 0.00 96 1019.7
20260830123531 25 216 0.0 0.0 0.00 0.00 0.00 96 1019.8
20260830123433 25 216 0.0 0.0 0.00 0.00 0.00 96 1019.8
20260830123331 25 216 0.0 0.0 0.00 0.00 0.00 96 1019.8
20260830123231 25 216 0.0 0.0 0.00 0.00 0.00 96 1019.8
20260830123132 25 216 0.0 0.0 0.00 0.00 0.00 96 1019.8
20260830123033 25 216 0.0 0.0 0.00 0.00 0.00 96 1019.7
20260830122931 25 216 0.0 0.0 0.00 0.00 0.00 96 1019.5
20260830122831 25 216 0.0 0.0 0.00 0.00 0.00 96 1019.6
20260830122732 25 216 0.0 0.0 0.00 0.00 0.00 96 1019.6
20260830122632 25 216 0.0 0.0 0.00 0.00 0.00 96 1019.6
20260830122532 25 216 0.0 0.0 0.00 0.00 0.00 96 1019.5
20260830122432 25 216 0.0 0.0 0.00 0.00 0.00 96 1019.5
20260830122331 25 216 0.0 0.0 0.00 0.00 0.00 96 1019.5
20260830122233 25 216 0.0 0.0 0.00 0.00 0.00 96 1019.5
20260830122131 25 216 0.0 0.0 0.00 0.00 0.00 96 1019.6
20260830122032 25 216 0.0 0.0 0.00 0.00 0.00 96 1019.6
20260830121931 25 216 0.0 0.0 0.00 0.00 0.00 96 1019.5
20260830121831 25 216 0.0 0.0 0.00 0.00 0.00 96 1019.5
20260830121732 25 216 0.0 0.0 0.00 0.00 0.00 96 1019.6
20260830121632 25 216 0.0 0.0 0.00 0.00 0.00 96 1019.6
20260830121532 25 216 0.0 0.0 0.00 0.00 0.00 96 1019.5
20260830121432 25 216 0.0 0.0 0.00 0.00 0.00 96 1019.5
20260830121334 25 216 0.0 0.0 0.00 0.00 0.00 96 1019.5
20260830121230 25 216 0.0 0.0 0.00 0.00 0.00 96 1019.6
20260830121131 25 216 0.0 0.0 0.00 0.00 0.00 96 1019.6
20260830121032 25 216 0.0 0.0 0.00 0.00 0.00 96 1019.6
20260830120934 25 216 0.0 0.0 0.00 0.00 0.00 96 1019.6
20260830120832 25 216 0.0 0.0 0.00 0.00 0.00 96 1019.5
20260830120731 25 216 0.0 0.0 0.00 0.00 0.00 96 1019.6
20260830120633 25 216 0.0 0.0 0.00 0.00 0.00 96 1019.5
20260830120533 25 216 0.0 0.0 0.00 0.00 0.00 96 1019.5
20260830120432 25 216 0.0 0.0 0.00 0.00 0.00 96 1019.5
20260830120333 25 216 0.0 0.0 0.00 0.00 0.00 96 1019.5
20260830120231 25 216 0.0 0.0 0.00 0.00 0.00 96 1019.5
20260830120132 25 216 0.0 0.0 0.00 0.00 0.00 96 1019.4
20260830120032 25 216 0.0 0.0 0.00 0.00 0.00 96 1019.4
20260830115932 25 216 0.0 0.0 0.00 0.00 0.00 96 1019.4
20260830115831 25 216 0.0 0.0 0.00 0.00 0.00 96 1019.4
20260830115731 25 216 0.0 0.0 0.00 0.00 0.00 96 1019.4
20260830115632 25 216 0.0 0.0 0.00 0.00 0.00 96 1019.5
20260830115526 25 216 0.0 0.0 0.00 0.00 0.00 96 1019.5
20260830115425 25 216 0.0 0.0 0.00 0.00 0.00 96 1019.5
20260830115324 25 216 0.0 0.0 0.00 0.00 0.00 96 1019.5
20260830115222 25 216 0.0 0.0 0.00 0.00 0.00 96 1019.5
20260830115122 25 216 0.0 0.0 0.00 0.00 0.00 96 1019.5
20260830115019 25 216 0.0 0.0 0.00 0.00 0.00 96 1019.5
20260830114917 25 216 0.0 0.0 0.00 0.00 0.00 96 1019.6
20260830114817 25 216 0.0 0.0 0.00 0.00 0.00 96 1019.5
20260830114716 25 216 0.0 0.0 0.00 0.00 0.00 96 1019.4
20260830114613 25 216 0.0 0.0 0.00 0.00 0.00 96 1019.5
20260830114512 25 216 0.0 0.0 0.00 0.00 0.00 96 1019.4
20260830114412 25 216 0.0 0.0 0.00 0.00 0.00 96 1019.5
20260830114310 25 216 0.0 0.0 0.00 0.00 0.00 96 1019.5
20260830114208 25 216 0.0 0.0 0.00 0.00 0.00 96 1019.5
20260830114106 25 216 0.0 0.0 0.00 0.00 0.00 96 1019.6
20260830114004 25 216 0.0 0.0 0.00 0.00 0.00 96 1019.4
20260830113904 25 216 0.0 0.0 0.00 0.00 0.00 96 1019.4
20260830113803 25 216 0.0 0.0 0.00 0.00 0.00 96 1019.4
20260830113705 25 216 0.0 0.0 0.00 0.00 0.00 96 1019.4
20260830113603 25 216 0.0 0.0 0.00 0.00 0.00 96 1019.3
20260830113504 25 216 0.0 0.0 0.00 0.00 0.00 96 1019.4
20260830113402 25 216 0.0 0.0 0.00 0.00 0.00 96 1019.3
20260830113303 25 216 0.0 0.0 0.00 0.00 0.00 96 1019.4
20260830113203 25 216 0.0 0.0 0.00 0.00 0.00 96 1019.4
20260830113102 25 216 0.0 0.0 0.00 0.00 0.00 96 1019.3
20260830113004 25 216 0.0 0.0 0.00 0.00 0.00 96 1019.4
20260830112904 25 216 0.0 0.0 0.00 0.00 0.00 96 1019.4
20260830112801 25 216 0.0 0.0 0.00 0.00 0.00 96 1019.4
20260830112703 25 216 0.0 0.0 0.00 0.00 0.00 96 1019.5
20260830112602 25 216 0.0 0.0 0.00 0.00 0.00 96 1019.5
20260830112503 25 216 0.0 0.0 0.00 0.00 0.00 96 1019.5
20260830112403 25 216 0.0 0.0 0.00 0.00 0.00 96 1019.5
20260830112306 25 216 0.0 0.0 0.00 0.00 0.00 96 1019.5
20260830112202 25 216 0.0 0.0 0.00 0.00 0.00 96 1019.5
20260830112102 25 216 0.0 0.0 0.00 0.00 0.00 96 1019.4
20260830112003 25 216 0.0 0.0 0.00 0.00 0.00 96 1019.4
20260830111903 25 216 0.0 0.0 0.00 0.00 0.00 96 1019.4
20260830111802 25 216 0.0 0.0 0.00 0.00 0.00 96 1019.5
20260830111702 25 216 0.0 0.0 0.00 0.00 0.00 96 1019.5
20260830111602 25 216 0.0 0.0 0.00 0.00 0.00 95 1019.5
20260830111502 25 216 0.0 0.0 0.00 0.00 0.00 95 1019.5
20260830111402 25 216 0.0 0.0 0.00 0.00 0.00 95 1019.5
20260830111305 25 216 0.0 0.0 0.00 0.00 0.00 95 1019.3
20260830111202 25 216 0.0 0.0 0.00 0.00 0.00 95 1019.3
20260830111102 25 216 0.0 0.0 0.00 0.00 0.00 95 1019.3
20260830111002 25 216 0.0 0.0 0.00 0.00 0.00 95 1019.3
20260830110902 25 216 0.0 0.0 0.00 0.00 0.00 95 1019.3
20260830110803 25 216 0.0 0.0 0.00 0.00 0.00 95 1019.2
20260830110702 25 216 0.0 0.0 0.00 0.00 0.00 95 1019.2
20260830110604 25 216 0.0 0.0 0.00 0.00 0.00 95 1019.2
20260830110503 25 216 0.0 0.0 0.00 0.00 0.00 95 1019.2
20260830110403 25 216 0.0 0.0 0.00 0.00 0.00 95 1019.2
20260830110303 25 216 0.0 0.0 0.00 0.00 0.00 95 1019.2
20260830110202 25 216 0.0 0.0 0.00 0.00 0.00 95 1019.3
20260830110002 25 216 0.0 0.0 0.00 0.00 0.00 95 1019.2
20260830105903 25 216 0.0 0.0 0.00 0.00 0.00 95 1019.2
20260830105803 25 216 0.0 0.0 0.00 0.00 0.00 95 1019.2
20260830105702 25 216 0.0 0.0 0.00 0.00 0.00 95 1019.2
20260830105603 25 216 0.0 0.0 0.00 0.00 0.00 95 1019.2
20260830105504 25 216 0.0 0.0 0.00 0.00 0.00 95 1019.2
20260830105402 25 216 0.0 0.0 0.00 0.00 0.00 95 1019.2
20260830105305 25 216 0.0 0.0 0.00 0.00 0.00 95 1019.2
20260830105204 25 216 0.0 0.0 0.00 0.00 0.00 95 1019.2
20260830105102 25 216 0.0 0.0 0.00 0.00 0.00 95 1019.2
20260830105003 25 216 0.0 0.0 0.00 0.00 0.00 95 1019.3
20260830104904 25 216 0.0 0.0 0.00 0.00 0.00 95 1019.3
20260830104802 25 216 0.0 0.0 0.00 0.00 0.00 95 1019.3
20260830104701 25 216 0.0 0.0 0.00 0.00 0.00 95 1019.2
20260830104603 25 216 0.0 0.0 0.00 0.00 0.00 95 1019.1
20260830104503 25 216 0.0 0.0 0.00 0.00 0.00 95 1019.1
20260830104403 25 216 0.0 0.0 0.00 0.00 0.00 95 1019.1
20260830104303 25 216 0.0 0.0 0.00 0.00 0.00 95 1019.1
20260830104204 25 216 0.0 0.0 0.00 0.00 0.00 95 1019.0
20260830104102 25 216 0.0 0.0 0.00 0.00 0.00 95 1019.1
20260830104002 25 216 0.0 0.0 0.00 0.00 0.00 95 1019.0
20260830103903 25 216 0.0 0.0 0.00 0.00 0.00 95 1019.0
20260830103802 25 216 0.0 0.0 0.00 0.00 0.00 95 1019.0
20260830103702 25 216 0.0 0.0 0.00 0.00 0.00 95 1019.1
20260830103600 25 216 0.0 0.0 0.00 0.00 0.00 95 1019.1
20260830103501 25 216 0.0 0.0 0.00 0.00 0.00 95 1019.0
20260830103357 25 216 0.0 0.0 0.00 0.00 0.00 95 1019.1
20260830103256 25 216 0.0 0.0 0.00 0.00 0.00 95 1019.1
20260830103156 25 216 0.0 0.0 0.00 0.00 0.00 95 1019.0
20260830103056 25 216 0.0 0.0 0.00 0.00 0.00 95 1019.1
20260830102957 25 216 0.0 0.0 0.00 0.00 0.00 95 1019.0
20260830102855 25 216 0.0 0.0 0.00 0.00 0.00 95 1019.0
20260830102754 25 216 0.0 0.0 0.00 0.00 0.00 95 1019.0
20260830102656 25 216 0.0 0.0 0.00 0.00 0.00 95 1019.1
20260830102554 25 216 0.0 0.0 0.00 0.00 0.00 95 1019.1
20260830102454 25 216 0.0 0.0 0.00 0.00 0.00 95 1019.1
20260830102356 25 216 0.0 0.0 0.00 0.00 0.00 95 1019.0
20260830102255 25 216 0.0 0.0 0.00 0.00 0.00 95 1019.0
20260830102154 25 216 0.0 0.0 0.00 0.00 0.00 95 1019.0
20260830102055 25 216 0.0 0.0 0.00 0.00 0.00 95 1019.0
20260830101955 25 216 0.0 0.0 0.00 0.00 0.00 95 1019.0
20260830101855 25 216 0.0 0.0 0.00 0.00 0.00 95 1018.9
20260830101755 25 216 0.0 0.0 0.00 0.00 0.00 95 1018.9
20260830101655 25 216 0.0 0.0 0.00 0.00 0.00 95 1018.9
20260830101556 25 216 0.0 0.0 0.00 0.00 0.00 95 1018.9
20260830101454 25 216 0.0 0.0 0.00 0.00 0.00 95 1018.9
20260830101354 25 216 0.0 0.0 0.00 0.00 0.00 95 1018.9
20260830101256 25 216 0.0 0.0 0.00 0.00 0.00 95 1018.8
20260830101155 25 216 0.0 0.0 0.00 0.00 0.00 95 1018.9
20260830101055 25 216 0.0 0.0 0.00 0.00 0.00 95 1018.9
20260830100954 25 216 0.0 0.0 0.00 0.00 0.00 95 1018.9
20260830100855 25 216 0.0 0.0 0.00 0.00 0.00 95 1018.8
20260830100754 25 216 0.0 0.0 0.00 0.00 0.00 95 1018.9
20260830100654 25 216 0.0 0.0 0.00 0.00 0.00 95 1018.8
20260830100556 25 216 0.0 0.0 0.00 0.00 0.00 95 1018.9
20260830100455 25 216 0.0 0.0 0.00 0.00 0.00 95 1018.8
20260830100354 25 216 0.0 0.0 0.00 0.00 0.00 95 1018.8
20260830100256 25 216 0.0 0.0 0.00 0.00 0.00 95 1018.9
20260830100156 25 216 0.0 0.0 0.00 0.00 0.00 95 1018.8
20260830100054 25 216 0.0 0.0 0.00 0.00 0.00 95 1018.9
20260830095954 25 216 0.0 0.0 0.00 0.00 0.00 94 1018.8
20260830095856 25 216 0.0 0.0 0.00 0.00 0.00 94 1018.9
20260830095748 25 216 0.0 0.0 0.00 0.00 0.00 94 1018.9
20260830095649 25 216 0.0 0.0 0.00 0.00 0.00 94 1018.7
20260830095545 25 216 0.0 0.0 0.00 0.00 0.00 94 1018.7
20260830095444 25 216 0.0 0.0 0.00 0.00 0.00 94 1018.7
20260830095343 25 216 0.0 0.0 0.00 0.00 0.00 94 1018.7
20260830095241 25 216 0.0 0.0 0.00 0.00 0.00 94 1018.7
20260830095141 25 216 0.0 0.0 0.00 0.00 0.00 94 1018.7
20260830095039 25 216 0.0 0.0 0.00 0.00 0.00 94 1018.8
20260830094937 25 216 0.0 0.0 0.00 0.00 0.00 94 1018.7
20260830094834 25 216 0.0 0.0 0.00 0.00 0.00 94 1018.7
20260830094733 25 216 0.0 0.0 0.00 0.00 0.00 94 1018.8
20260830094632 25 216 0.0 0.0 0.00 0.00 0.00 94 1018.8
20260830094532 25 216 0.0 0.0 0.00 0.00 0.00 94 1018.8
20260830094433 25 216 0.0 0.0 0.00 0.00 0.00 94 1018.8
20260830094332 25 216 0.0 0.0 0.00 0.00 0.00 94 1018.9
20260830094232 25 216 0.0 0.0 0.00 0.00 0.00 94 1018.8
20260830094132 25 216 0.0 0.0 0.00 0.00 0.00 94 1018.8
20260830094031 25 216 0.0 0.0 0.00 0.00 0.00 94 1018.8
20260830093933 25 216 0.0 0.0 0.00 0.00 0.00 94 1018.8
20260830093830 25 216 0.0 0.0 0.00 0.00 0.00 94 1018.8
20260830093731 25 216 0.0 0.0 0.00 0.00 0.00 94 1018.8
20260830093634 25 216 0.0 0.0 0.00 0.00 0.00 94 1018.9
20260830093532 25 216 0.0 0.0 0.00 0.00 0.00 94 1018.8
20260830093432 25 216 0.0 0.0 0.00 0.00 0.00 94 1018.8
20260830093333 25 216 0.0 0.0 0.00 0.00 0.00 94 1018.8
20260830093232 25 216 0.0 0.0 0.00 0.00 0.00 94 1018.7
20260830093132 25 216 0.0 0.0 0.00 0.00 0.00 94 1018.8
20260830093032 25 216 0.0 0.0 0.00 0.00 0.00 94 1018.8
20260830092932 25 216 0.0 0.0 0.00 0.00 0.00 94 1018.8
20260830092831 25 216 0.0 0.0 0.00 0.00 0.00 94 1018.7
20260830092733 25 216 0.0 0.0 0.00 0.00 0.00 94 1018.8
20260830092632 25 216 0.0 0.0 0.00 0.00 0.00 94 1018.8
20260830092533 25 216 0.0 0.0 0.00 0.00 0.00 94 1018.7
20260830092431 25 216 0.0 0.0 0.00 0.00 0.00 94 1018.7
20260830092331 25 216 0.0 0.0 0.00 0.00 0.00 94 1018.8
20260830092233 25 216 0.0 0.0 0.00 0.00 0.00 94 1018.7
20260830092131 25 216 0.0 0.0 0.00 0.00 0.00 94 1018.7
20260830092031 25 216 0.0 0.0 0.00 0.00 0.00 94 1018.8
20260830091933 25 216 0.0 0.0 0.00 0.00 0.00 94 1018.8
20260830091832 25 216 0.0 0.0 0.00 0.00 0.00 94 1018.8
20260830091731 25 216 0.0 0.0 0.00 0.00 0.00 94 1018.8
20260830091632 25 216 0.0 0.0 0.00 0.00 0.00 94 1018.8
20260830091532 25 216 0.0 0.0 0.00 0.00 0.00 94 1018.8
20260830091431 25 216 0.0 0.0 0.00 0.00 0.00 94 1018.8
20260830091332 25 216 0.0 0.0 0.00 0.00 0.00 94 1018.8
20260830091232 25 216 0.0 0.0 0.00 0.00 0.00 94 1018.8
20260830091132 25 216 0.0 0.0 0.00 0.00 0.00 94 1018.8
20260830091032 25 216 0.0 0.0 0.00 0.00 0.00 94 1018.8
20260830090934 25 216 0.0 0.0 0.00 0.00 0.00 93 1018.8
20260830090832 25 216 0.0 0.0 0.00 0.00 0.00 93 1018.8
20260830090731 25 216 0.0 0.0 0.00 0.00 0.00 93 1018.8
20260830090631 25 216 0.0 0.0 0.00 0.00 0.00 93 1018.7
20260830090533 25 216 0.0 0.0 0.00 0.00 0.00 94 1018.7
20260830090431 25 216 0.0 0.0 0.00 0.00 0.00 94 1018.7
20260830090331 25 216 0.0 0.0 0.00 0.00 0.00 93 1018.7
20260830090232 25 216 0.0 0.0 0.00 0.00 0.00 93 1018.8
20260830090132 25 216 0.0 0.0 0.00 0.00 0.00 93 1018.7
20260830090032 25 216 0.0 0.0 0.00 0.00 0.00 93 1018.7
20260830085932 25 216 0.0 0.0 0.00 0.00 0.00 93 1018.8
20260830085832 25 216 0.0 0.0 0.00 0.00 0.00 93 1018.7
20260830085731 25 216 0.0 0.0 0.00 0.00 0.00 93 1018.9
20260830085631 25 216 0.0 0.0 0.00 0.00 0.00 93 1018.9
20260830085533 25 216 0.0 0.0 0.00 0.00 0.00 93 1018.8
20260830085431 25 216 0.0 0.0 0.00 0.00 0.00 93 1018.9
20260830085331 25 216 0.0 0.0 0.00 0.00 0.00 93 1018.9
20260830085232 25 216 0.0 0.0 0.00 0.00 0.00 93 1018.8
20260830085133 25 216 0.0 0.0 0.00 0.00 0.00 93 1018.9
20260830085033 25 216 0.0 0.0 0.00 0.00 0.00 93 1018.8
20260830084932 25 216 0.0 0.0 0.00 0.00 0.00 93 1018.9
20260830084832 25 216 0.0 0.0 0.00 0.00 0.00 93 1018.9
20260830084731 25 216 0.0 0.0 0.00 0.00 0.00 93 1018.9
20260830084630 25 216 0.0 0.0 0.00 0.00 0.00 93 1018.8
20260830084532 25 216 0.0 0.0 0.00 0.00 0.00 93 1018.9
20260830084431 25 216 0.0 0.0 0.00 0.00 0.00 93 1018.9
20260830084332 25 216 0.0 0.0 0.00 0.00 0.00 93 1018.9
20260830084231 26 216 0.0 0.0 0.00 0.00 0.00 93 1018.9
20260830084133 26 216 0.0 0.0 0.00 0.00 0.00 93 1018.9
20260830084031 26 216 0.0 0.0 0.00 0.00 0.00 93 1018.9
20260830083931 26 216 0.0 0.0 0.00 0.00 0.00 92 1018.9
20260830083832 26 216 0.0 0.0 0.00 0.00 0.00 92 1018.9
20260830083732 26 216 0.0 0.0 0.00 0.00 0.00 92 1018.8
20260830083631 26 216 0.0 0.0 0.00 0.00 0.00 92 1018.9
20260830083532 26 216 0.0 0.0 0.00 0.00 0.00 92 1018.8
20260830083432 26 216 0.0 0.0 0.00 0.00 0.00 92 1018.8
20260830083330 26 216 0.0 0.0 0.00 0.00 0.00 92 1018.8
20260830083231 26 216 0.0 0.0 0.00 0.00 0.00 92 1018.8
20260830083132 26 216 0.0 0.0 0.00 0.00 0.00 92 1018.8
20260830083032 26 216 0.0 0.0 0.00 0.00 0.00 92 1018.8
20260830082932 26 216 0.0 0.0 0.00 0.00 0.00 92 1018.9
20260830082832 26 216 0.0 0.0 0.00 0.00 0.00 92 1018.9
20260830082732 26 216 0.0 0.0 0.00 0.00 0.00 92 1019.0
20260830082631 26 216 0.0 0.0 0.00 0.00 0.00 92 1018.9
20260830082532 26 216 0.0 0.0 0.00 0.00 0.00 92 1018.9
20260830082432 26 216 0.0 0.0 0.00 0.00 0.00 92 1018.9
20260830082332 26 216 0.0 0.0 0.00 0.00 0.00 92 1019.0
20260830082231 26 216 0.0 0.0 0.00 0.00 0.00 92 1018.9
20260830082132 26 216 0.0 0.0 0.00 0.00 0.00 92 1018.9
20260830082031 26 216 0.0 0.0 0.00 0.00 0.00 92 1018.9
20260830081931 26 216 0.0 0.0 0.00 0.00 0.00 92 1018.9
20260830081831 26 216 0.0 0.0 0.00 0.00 0.00 92 1018.9
20260830081732 26 216 0.0 0.0 0.00 0.00 0.00 92 1018.9
20260830081631 26 216 0.0 0.0 0.00 0.00 0.00 92 1019.0
20260830081531 26 216 0.0 0.0 0.00 0.00 0.00 92 1019.0
20260830081434 26 216 0.0 0.0 0.00 0.00 0.00 93 1019.0
20260830081331 26 216 0.0 0.0 0.00 0.00 0.00 93 1019.0
20260830081231 26 216 0.0 0.0 0.00 0.00 0.00 93 1018.9
20260830081129 26 216 0.0 0.0 0.00 0.00 0.00 93 1019.0
20260830081028 26 216 0.0 0.0 0.00 0.00 0.00 93 1019.0
20260830080927 26 216 0.0 0.0 0.00 0.00 0.00 93 1018.9
20260830080825 26 216 0.0 0.0 0.00 0.00 0.00 93 1018.8
20260830080723 26 216 0.0 0.0 0.00 0.00 0.00 93 1018.9
20260830080623 25 216 0.0 0.0 0.00 0.00 0.00 93 1018.9
20260830080520 25 216 0.0 0.0 0.00 0.00 0.00 92 1018.8
20260830080419 25 216 0.0 0.0 0.00 0.00 0.00 93 1018.8
20260830080317 25 216 0.0 0.0 0.00 0.00 0.00 93 1018.8
20260830080216 25 216 0.0 0.0 0.00 0.00 0.00 92 1018.8
20260830080116 25 216 0.0 0.0 0.00 0.00 0.00 92 1018.9
20260830080011 25 216 0.0 0.0 0.00 0.00 0.00 92 1018.9
20260830075910 25 216 0.0 0.0 0.00 0.00 0.00 92 1018.9
20260830075804 25 216 0.0 0.0 0.00 0.00 0.00 92 1019.0
20260830075703 25 216 0.0 0.0 0.00 0.00 0.00 92 1018.9
20260830075603 25 216 0.0 0.0 0.00 0.00 0.00 92 1018.9
20260830075505 25 216 0.0 0.0 0.00 0.00 0.00 92 1018.9
20260830075403 25 216 0.0 0.0 0.00 0.00 0.00 92 1018.9
20260830075301 26 216 0.0 0.0 0.00 0.00 0.00 92 1018.9
20260830075202 26 216 0.0 0.0 0.00 0.00 0.00 92 1018.9
20260830075102 26 216 0.0 0.0 0.00 0.00 0.00 92 1018.9
20260830075002 26 216 0.0 0.0 0.00 0.00 0.00 92 1018.9
20260830074904 26 216 0.0 0.0 0.00 0.00 0.00 92 1018.9
20260830074805 26 216 0.0 0.0 0.00 0.00 0.00 92 1018.9
20260830074702 26 216 0.0 0.0 0.00 0.00 0.00 92 1018.9
20260830074601 26 216 0.0 0.0 0.00 0.00 0.00 92 1019.0
20260830074502 26 216 0.0 0.0 0.00 0.00 0.00 92 1018.9
20260830074402 26 216 0.0 0.0 0.00 0.00 0.00 91 1019.0
20260830074302 26 216 0.0 0.0 0.00 0.00 0.00 91 1019.0
20260830074202 26 216 0.0 0.0 0.00 0.00 0.00 91 1018.9
20260830074103 26 216 0.0 0.0 0.00 0.00 0.00 91 1018.9
20260830074002 26 216 0.0 0.0 0.00 0.00 0.00 91 1018.9
20260830073902 26 216 0.0 0.0 0.00 0.00 0.00 91 1019.0
20260830073802 26 216 0.0 0.0 0.00 0.00 0.00 91 1018.9
20260830073702 26 216 0.0 0.0 0.00 0.00 0.00 91 1018.9
20260830073603 26 216 0.0 0.0 0.00 0.00 0.00 91 1018.9
20260830073503 26 216 0.0 0.0 0.00 0.00 0.00 91 1018.9
20260830073403 26 216 0.0 0.0 0.00 0.00 0.00 91 1019.0
20260830073303 26 216 0.0 0.0 0.00 0.00 0.00 91 1019.0
20260830073202 26 216 0.0 0.0 0.00 0.00 0.00 91 1019.0
20260830073103 26 216 0.0 0.0 0.00 0.00 0.00 91 1019.1
20260830073004 26 216 0.0 0.0 0.00 0.00 0.00 91 1019.1
20260830072903 26 216 0.0 0.0 0.00 0.00 0.00 91 1019.1
20260830072802 26 216 0.0 0.0 0.00 0.00 0.00 91 1019.2
20260830072704 26 216 0.0 0.0 0.00 0.00 0.00 91 1019.2
20260830072602 26 216 0.0 0.0 0.00 0.00 0.00 91 1019.2
20260830072504 26 216 0.0 0.0 0.00 0.00 0.00 91 1019.1
20260830072403 26 216 0.0 0.0 0.00 0.00 0.00 91 1019.2
20260830072306 26 216 0.0 0.0 0.00 0.00 0.00 91 1019.2
20260830072202 26 216 0.0 0.0 0.00 0.00 0.00 91 1019.2
20260830072102 26 216 0.0 0.0 0.00 0.00 0.00 91 1019.2
20260830072004 26 216 0.0 0.0 0.00 0.00 0.00 91 1019.2
20260830071902 26 216 0.0 0.0 0.00 0.00 0.00 90 1019.2
20260830071802 26 216 0.0 0.0 0.00 0.00 0.00 90 1019.3
20260830071703 26 216 0.0 0.0 0.00 0.00 0.00 90 1019.2
20260830071602 26 216 0.0 0.0 0.00 0.00 0.00 90 1019.2
20260830071503 26 216 0.0 0.0 0.00 0.00 0.00 90 1019.3
20260830071403 26 216 0.0 0.0 0.00 0.00 0.00 90 1019.2
20260830071303 26 216 0.0 0.0 0.00 0.00 0.00 90 1019.2
20260830071204 26 216 0.0 0.0 0.00 0.00 0.00 90 1019.1
20260830071103 26 216 0.0 0.0 0.00 0.00 0.00 90 1019.2
20260830071004 26 216 0.0 0.0 0.00 0.00 0.00 90 1019.2
20260830070903 26 216 0.0 0.0 0.00 0.00 0.00 90 1019.1
20260830070802 26 216 0.0 0.0 0.00 0.00 0.00 90 1019.1
20260830070703 26 216 0.0 0.0 0.00 0.00 0.00 90 1019.1
20260830070603 26 216 0.0 0.0 0.00 0.00 0.00 90 1019.0
20260830070504 26 216 0.0 0.0 0.00 0.00 0.00 90 1019.1
20260830070402 26 216 0.0 0.0 0.00 0.00 0.00 89 1019.2
20260830070304 26 216 0.0 0.0 0.00 0.00 0.00 89 1019.1
20260830070202 26 216 0.0 0.0 0.00 0.00 0.00 89 1019.1
20260830070006 26 216 0.0 0.0 0.00 0.00 0.00 89 1019.1
20260830065903 26 216 0.0 0.0 0.00 0.00 0.00 89 1019.1
20260830065803 26 216 0.0 0.0 0.00 0.00 0.00 89 1019.0
20260830065702 26 216 0.0 0.0 0.00 0.00 0.00 89 1019.1
20260830065603 26 216 0.0 0.0 0.00 0.00 0.00 89 1019.1
20260830065502 26 216 0.0 0.0 0.00 0.00 0.00 89 1019.0
20260830065402 26 216 0.0 0.0 0.00 0.00 0.00 89 1019.1
20260830065306 26 216 0.0 0.0 0.00 0.00 0.00 89 1019.1
20260830065202 26 216 0.0 0.0 0.00 0.00 0.00 89 1019.1
20260830065103 26 216 0.0 0.0 0.00 0.00 0.00 89 1019.1
20260830065004 26 216 0.0 0.0 0.00 0.00 0.00 89 1019.1
20260830064903 26 216 0.0 0.0 0.00 0.00 0.00 89 1019.1
20260830064802 26 216 0.0 0.0 0.00 0.00 0.00 88 1019.2
20260830064702 26 216 0.0 0.0 0.00 0.00 0.00 88 1019.1
20260830064603 26 216 0.0 0.0 0.00 0.00 0.00 88 1019.1
20260830064502 26 216 0.0 0.0 0.00 0.00 0.00 88 1019.1
20260830064403 26 216 0.0 0.0 0.00 0.00 0.00 88 1019.0
20260830064304 26 216 0.0 0.0 0.00 0.00 0.00 88 1019.0
20260830064203 26 216 0.0 0.0 0.00 0.00 0.00 88 1019.0
20260830064102 26 216 0.0 0.0 0.00 0.00 0.00 87 1019.0
20260830064002 26 216 0.0 0.0 0.00 0.00 0.00 87 1019.0
20260830063903 26 216 0.0 0.0 0.00 0.00 0.00 87 1019.0
20260830063804 26 216 0.0 0.0 0.00 0.00 0.00 87 1019.0
20260830063702 26 216 0.0 0.0 0.00 0.00 0.00 87 1019.0
20260830063604 27 216 0.0 0.0 0.00 0.00 0.00 87 1019.1
20260830063503 27 216 0.0 0.0 0.00 0.00 0.00 87 1019.1
20260830063401 27 216 0.0 0.0 0.00 0.00 0.00 87 1019.1
20260830063303 27 216 0.0 0.0 0.00 0.00 0.00 87 1019.1
20260830063203 27 216 0.0 0.0 0.00 0.00 0.00 87 1019.0
20260830063103 27 216 0.0 0.0 0.00 0.00 0.00 87 1019.1
20260830063003 27 216 0.0 0.0 0.00 0.00 0.00 87 1019.0
20260830062903 27 216 0.0 0.0 0.00 0.00 0.00 87 1019.1
20260830062802 27 216 0.0 0.0 0.00 0.00 0.00 87 1019.1
20260830062703 27 216 0.0 0.0 0.00 0.00 0.00 87 1019.2
20260830062603 27 216 0.0 0.0 0.00 0.00 0.00 86 1019.2
20260830062504 27 216 0.0 0.0 0.00 0.00 0.00 86 1019.1
20260830062402 27 216 0.0 0.0 0.00 0.00 0.00 86 1019.1
20260830062305 27 216 0.0 0.0 0.00 0.00 0.00 86 1019.2
20260830062203 27 216 0.0 0.0 0.00 0.00 0.00 86 1019.1
20260830062102 27 216 0.0 0.0 0.00 0.00 0.00 86 1019.1
20260830062004 27 216 0.0 0.0 0.00 0.00 0.00 86 1019.2
20260830061903 27 216 0.0 0.0 0.00 0.00 0.00 86 1019.2
20260830061803 27 216 0.0 0.0 0.00 0.00 0.00 86 1019.2
20260830061703 27 216 0.0 0.0 0.00 0.00 0.00 86 1019.0
20260830061602 27 216 0.0 0.0 0.00 0.00 0.00 86 1019.1
20260830061504 27 216 0.0 0.0 0.00 0.00 0.00 86 1019.0
20260830061401 27 216 0.0 0.0 0.00 0.00 0.00 86 1019.1
20260830061302 27 216 0.0 0.0 0.00 0.00 0.00 86 1019.0
20260830061203 27 216 0.0 0.0 0.00 0.00 0.00 86 1019.1
20260830061103 27 216 0.0 0.0 0.00 0.00 0.00 86 1019.1
20260830061004 27 216 0.0 0.0 0.00 0.00 0.00 86 1019.0
20260830060903 27 216 0.0 0.0 0.00 0.00 0.00 86 1019.1
20260830060803 27 216 0.0 0.0 0.00 0.00 0.00 86 1019.1
20260830060703 27 216 0.0 0.0 0.00 0.00 0.00 86 1019.1
20260830060603 27 216 0.0 0.0 0.00 0.00 0.00 86 1019.1
20260830060504 27 216 0.0 0.0 0.00 0.00 0.00 86 1019.1
20260830060403 27 216 0.0 0.0 0.00 0.00 0.00 86 1019.2
20260830060301 27 216 0.0 0.0 0.00 0.00 0.00 86 1019.1
20260830060202 27 216 0.0 0.0 0.00 0.00 0.00 86 1019.1
20260830060002 27 216 0.0 0.0 0.00 0.00 0.00 86 1019.1
20260830055902 27 216 0.0 0.0 0.00 0.00 0.00 86 1019.1
20260830055803 27 216 0.0 0.0 0.00 0.00 0.00 86 1019.1
20260830055702 27 216 0.0 0.0 0.00 0.00 0.00 86 1019.1
20260830055603 27 216 0.0 0.0 0.00 0.00 0.00 85 1019.0
20260830055504 27 216 0.0 0.0 0.00 0.00 0.00 85 1018.9
20260830055402 27 216 0.0 0.0 0.00 0.00 0.00 85 1019.0
20260830055301 27 216 0.0 0.0 0.00 0.00 0.00 85 1019.0
20260830055203 27 216 0.0 0.0 0.00 0.00 0.00 85 1019.0
20260830055103 27 216 0.0 0.0 0.00 0.00 0.00 85 1019.0
20260830055003 27 216 0.0 0.0 0.00 0.00 0.00 85 1019.0
20260830054902 27 216 0.0 0.0 0.00 0.00 0.00 85 1019.1
20260830054803 27 216 0.0 0.0 0.00 0.00 0.00 85 1019.0
20260830054702 27 216 0.0 0.0 0.00 0.00 0.00 85 1018.9
20260830054603 27 216 0.0 0.0 0.00 0.00 0.00 85 1019.0
20260830054503 27 216 0.0 0.0 0.00 0.00 0.00 85 1019.0
20260830054402 27 216 0.0 0.0 0.00 0.00 0.00 85 1019.0
20260830054302 27 216 0.0 0.0 0.00 0.00 0.00 85 1019.0
20260830054201 27 216 0.0 0.0 0.00 0.00 0.00 86 1019.0
20260830054103 27 216 0.0 0.0 0.00 0.00 0.00 86 1019.0
20260830054002 27 216 0.0 0.0 0.00 0.00 0.00 86 1019.1
20260830053902 27 216 0.0 0.0 0.00 0.00 0.00 86 1019.0
20260830053804 27 216 0.0 0.0 0.00 0.00 0.00 86 1019.1
20260830053702 27 216 0.0 0.0 0.00 0.00 0.00 86 1019.0
20260830053601 27 216 0.0 0.0 0.00 0.00 0.00 86 1019.0
20260830053503 27 216 0.0 0.0 0.00 0.00 0.00 86 1019.0
20260830053402 27 216 0.0 0.0 0.00 0.00 0.00 86 1019.0
20260830053302 27 216 0.0 0.0 0.00 0.00 0.00 86 1019.0
20260830053202 27 216 0.0 0.0 0.00 0.00 0.00 86 1019.0
20260830053104 27 216 0.0 0.0 0.00 0.00 0.00 86 1019.0
20260830053002 27 216 0.0 0.0 0.00 0.00 0.00 86 1019.0
20260830052900 27 216 0.0 0.0 0.00 0.00 0.00 86 1019.0
20260830052757 27 216 0.0 0.0 0.00 0.00 0.00 86 1019.0
20260830052658 27 216 0.0 0.0 0.00 0.00 0.00 86 1019.0
20260830052557 27 216 0.0 1.6 0.00 0.00 0.00 86 1018.9
20260830052455 27 216 0.0 1.6 0.00 0.00 0.00 86 1019.0
20260830052353 27 216 0.0 1.6 0.00 0.00 0.00 87 1019.0
20260830052248 27 216 0.0 1.6 0.00 0.00 0.00 87 1019.0
20260830052149 27 216 0.0 1.6 0.00 0.00 0.00 87 1019.1
20260830052049 27 216 0.0 1.6 0.00 0.00 0.00 87 1019.0
20260830051948 27 216 0.0 1.6 0.00 0.00 0.00 87 1019.1
20260830051847 27 216 0.0 1.6 0.00 0.00 0.00 87 1019.1
20260830051749 27 216 0.0 1.6 0.00 0.00 0.00 87 1018.9
20260830051648 27 216 0.0 1.6 0.00 0.00 0.00 86 1018.9
20260830051548 27 216 0.0 1.6 0.00 0.00 0.00 87 1018.8
20260830051447 27 216 0.0 1.6 0.00 0.00 0.00 87 1018.8
20260830051349 27 216 0.0 1.6 0.00 0.00 0.00 86 1018.9
20260830051247 27 216 0.0 1.6 0.00 0.00 0.00 86 1018.9
20260830051147 27 216 0.0 1.6 0.00 0.00 0.00 86 1018.9
20260830051049 27 216 0.0 1.6 0.00 0.00 0.00 87 1018.9
20260830050949 27 216 0.0 1.6 0.00 0.00 0.00 87 1019.0
20260830050847 27 216 0.0 1.6 0.00 0.00 0.00 86 1019.0
20260830050747 27 216 0.0 1.6 0.00 0.00 0.00 86 1019.0
20260830050649 27 216 0.0 1.6 0.00 0.00 0.00 86 1019.0
20260830050547 27 216 0.0 1.6 0.00 0.00 0.00 86 1019.0
20260830050447 27 216 0.0 1.6 0.00 0.00 0.00 86 1019.0
20260830050349 27 216 0.0 1.6 0.00 0.00 0.00 86 1019.0
20260830050247 27 216 0.0 1.6 0.00 0.00 0.00 86 1019.0
20260830050147 27 216 0.0 1.6 0.00 0.00 0.00 86 1019.0
20260830050047 27 216 0.0 1.6 0.00 0.00 0.00 87 1019.0
20260830045947 27 216 0.0 1.6 0.00 0.00 0.00 87 1019.0
20260830045847 27 216 0.0 1.6 0.00 0.00 0.00 87 1019.0
20260830045746 27 216 0.0 1.6 0.00 0.00 0.00 87 1019.0
20260830045645 27 216 0.0 1.6 0.00 0.00 0.00 87 1019.0
20260830045543 27 216 0.0 1.6 0.00 0.00 0.00 87 1019.0
20260830045441 27 216 0.0 1.6 0.00 0.00 0.00 87 1019.0
20260830045339 27 216 0.0 1.6 0.00 0.00 0.00 87 1018.9
20260830045239 27 216 0.0 0.0 0.00 0.00 0.00 87 1019.0
20260830045138 27 216 0.0 0.0 0.00 0.00 0.00 87 1019.1
20260830045036 27 216 0.0 0.0 0.00 0.00 0.00 86 1019.0
20260830044935 27 216 0.0 1.6 0.00 0.00 0.00 86 1019.0
20260830044832 27 216 0.0 1.6 0.00 0.00 0.00 86 1019.1
20260830044731 27 216 0.0 1.6 0.00 0.00 0.00 86 1019.0
20260830044631 27 216 0.0 3.2 0.00 0.00 0.00 86 1019.0
20260830044533 27 216 0.0 3.2 0.00 0.00 0.00 86 1018.9
20260830044433 27 216 0.0 3.2 0.00 0.00 0.00 86 1018.9
20260830044331 27 216 0.0 3.2 0.00 0.00 0.00 86 1018.9
20260830044233 27 216 0.0 3.2 0.00 0.00 0.00 86 1018.9
20260830044132 27 216 0.0 3.2 0.00 0.00 0.00 86 1018.9
20260830044031 27 216 0.0 3.2 0.00 0.00 0.00 86 1018.9
20260830043932 27 216 0.0 3.2 0.00 0.00 0.00 86 1019.0
20260830043833 27 216 0.0 3.2 0.00 0.00 0.00 86 1019.0
20260830043731 27 216 0.0 3.2 0.00 0.00 0.00 86 1019.1
20260830043631 27 216 0.0 3.2 0.00 0.00 0.00 86 1019.0
20260830043533 27 216 0.0 3.2 0.00 0.00 0.00 86 1018.9
20260830043432 27 216 0.0 3.2 0.00 0.00 0.00 85 1019.0
20260830043331 27 216 0.0 3.2 0.00 0.00 0.00 86 1018.9
20260830043232 27 216 0.0 3.2 0.00 0.00 0.00 86 1019.1
20260830043131 27 216 0.0 3.2 0.00 0.00 0.00 85 1019.0
20260830043032 27 216 0.0 3.2 0.00 0.00 0.00 86 1019.0
20260830042932 27 216 0.0 3.2 0.00 0.00 0.00 85 1019.0
20260830042833 27 216 0.0 3.2 0.00 0.00 0.00 85 1019.0
20260830042730 27 216 0.0 1.6 0.00 0.00 0.00 85 1018.9
20260830042629 27 223 0.0 1.6 0.00 0.00 0.00 85 1019.0
20260830042527 27 223 0.0 1.6 0.00 0.00 0.00 85 1019.0
20260830042427 27 223 0.0 1.6 0.00 0.00 0.00 85 1019.0
20260830042325 27 223 0.0 1.6 0.00 0.00 0.00 84 1019.0
20260830042224 27 223 0.0 1.6 0.00 0.00 0.00 84 1019.0
20260830042122 27 223 0.0 1.6 0.00 0.00 0.00 84 1019.0
20260830042022 28 223 0.0 3.2 0.00 0.00 0.00 84 1019.0
20260830041920 28 223 0.0 3.2 0.00 0.00 0.00 84 1019.1
20260830041818 28 223 0.0 3.2 0.00 0.00 0.00 84 1019.1
20260830041717 28 223 0.0 3.2 0.00 0.00 0.00 84 1019.0
20260830041616 28 223 0.0 3.2 0.00 0.00 0.00 84 1019.1
20260830041516 28 223 0.0 3.2 0.00 0.00 0.00 84 1019.1
20260830041412 28 223 0.0 6.4 0.00 0.00 0.00 84 1019.0
20260830041311 28 223 0.0 6.4 0.00 0.00 0.00 84 1019.0
20260830041209 28 223 0.0 6.4 0.00 0.00 0.00 84 1018.9
20260830041107 28 223 1.6 6.4 0.00 0.00 0.00 84 1018.9
20260830041007 28 223 0.0 6.4 0.00 0.00 0.00 84 1018.9
20260830040906 28 223 0.0 6.4 0.00 0.00 0.00 84 1018.9
20260830040805 28 223 0.0 6.4 0.00 0.00 0.00 84 1019.0
20260830040702 28 223 1.6 6.4 0.00 0.00 0.00 84 1018.9
20260830040602 28 221 1.6 6.4 0.00 0.00 0.00 84 1019.0
20260830040504 28 183 0.0 3.2 0.00 0.00 0.00 84 1018.9
20260830040403 28 183 0.0 4.8 0.00 0.00 0.00 84 1019.0
20260830040302 28 183 0.0 4.8 0.00 0.00 0.00 84 1019.1
20260830040203 28 183 1.6 4.8 0.00 0.00 0.00 84 1019.0
20260830040002 28 183 1.6 4.8 0.00 0.00 0.00 84 1019.0
20260830035904 28 183 1.6 4.8 0.00 0.00 0.00 84 1019.0
20260830035803 28 183 1.6 4.8 0.00 0.00 0.00 84 1019.1
20260830035702 28 183 1.6 4.8 0.00 0.00 0.00 84 1019.0
20260830035602 28 183 1.6 4.8 0.00 0.00 0.00 84 1019.0
20260830035504 28 182 0.0 4.8 0.00 0.00 0.00 84 1019.0
20260830035402 28 228 1.6 3.2 0.00 0.00 0.00 85 1019.0
20260830035306 28 228 0.0 3.2 0.00 0.00 0.00 85 1019.0
20260830035203 28 223 0.0 0.0 0.00 0.00 0.00 85 1019.0
20260830035102 28 223 0.0 0.0 0.00 0.00 0.00 85 1019.0
20260830035002 28 223 0.0 0.0 0.00 0.00 0.00 85 1018.9
20260830034902 28 223 0.0 0.0 0.00 0.00 0.00 85 1019.0
20260830034803 28 223 0.0 0.0 0.00 0.00 0.00 85 1019.0
20260830034703 28 223 0.0 0.0 0.00 0.00 0.00 85 1018.9
20260830034603 28 223 0.0 0.0 0.00 0.00 0.00 85 1018.9
20260830034504 28 223 0.0 0.0 0.00 0.00 0.00 85 1018.9
20260830034402 28 223 0.0 0.0 0.00 0.00 0.00 85 1018.9
20260830034303 28 223 0.0 0.0 0.00 0.00 0.00 85 1019.0
20260830034202 28 223 0.0 0.0 0.00 0.00 0.00 85 1019.0
20260830034103 28 223 0.0 0.0 0.00 0.00 0.00 85 1019.0
20260830034002 28 224 0.0 3.2 0.00 0.00 0.00 85 1019.1
20260830033902 28 224 0.0 3.2 0.00 0.00 0.00 84 1019.0
20260830033803 28 224 0.0 3.2 0.00 0.00 0.00 84 1019.0
20260830033703 28 224 0.0 3.2 0.00 0.00 0.00 84 1019.0
20260830033603 28 224 0.0 3.2 0.00 0.00 0.00 85 1019.0
20260830033503 28 226 0.0 3.2 0.00 0.00 0.00 84 1019.0
20260830033403 28 226 0.0 3.2 0.00 0.00 0.00 84 1019.0
20260830033302 28 226 0.0 3.2 0.00 0.00 0.00 84 1019.0
20260830033201 28 226 0.0 3.2 0.00 0.00 0.00 84 1019.0
20260830033103 28 227 0.0 4.8 0.00 0.00 0.00 84 1018.9
20260830033002 28 227 0.0 4.8 0.00 0.00 0.00 84 1018.9
20260830032902 28 227 0.0 4.8 0.00 0.00 0.00 84 1018.9
20260830032804 28 227 1.6 4.8 0.00 0.00 0.00 84 1018.9
20260830032703 28 227 0.0 4.8 0.00 0.00 0.00 84 1018.9
20260830032602 28 227 0.0 4.8 0.00 0.00 0.00 84 1018.8
20260830032503 28 227 1.6 4.8 0.00 0.00 0.00 84 1018.9
20260830032402 28 227 1.6 4.8 0.00 0.00 0.00 84 1018.9
20260830032306 28 227 1.6 4.8 0.00 0.00 0.00 84 1019.0
20260830032202 28 227 1.6 4.8 0.00 0.00 0.00 84 1018.9
20260830032104 28 131 0.0 4.8 0.00 0.00 0.00 84 1018.9
20260830032002 28 138 0.0 4.8 0.00 0.00 0.00 84 1018.9
20260830031903 28 138 1.6 4.8 0.00 0.00 0.00 83 1018.9
20260830031804 28 138 1.6 4.8 0.00 0.00 0.00 83 1018.9
20260830031703 28 138 0.0 1.6 0.00 0.00 0.00 83 1018.9
20260830031603 28 138 0.0 1.6 0.00 0.00 0.00 83 1018.9
20260830031502 28 138 0.0 1.6 0.00 0.00 0.00 83 1018.9
20260830031403 28 138 0.0 1.6 0.00 0.00 0.00 83 1018.9
20260830031302 28 138 0.0 4.8 0.00 0.00 0.00 83 1018.9
20260830031202 28 138 0.0 4.8 0.00 0.00 0.00 83 1018.8
20260830031103 28 138 0.0 4.8 0.00 0.00 0.00 83 1018.8
20260830031004 28 138 0.0 4.8 0.00 0.00 0.00 83 1018.7